GRL888X BGSF-DIAP

Flight info

Callsign GRL888X
Flight time 8h 56m
Altitude 41000
Route AMINI UT588 ASVID/M087F410 DCT 60N042W DCT 5840N DCT 5130N DCT 4220N/N0504F450 DCT 32N010W DCT MOGBA DCT EBATI/N0490F430 DCT 17N010W/N0486F450 DCT ILDES
Aircraft GLEX/M-SBDE2E3FGHIJ4J5M1RWXY/LB1D1

Departure

Time 2026-05-08 12:00
Airport Kangerlussuaq International Airport (BGSF)

Arrival

Time 2026-05-08 20:56
Airport Félix-Houphouët-Boigny International Airport (DIAP)
Time Latitude Longitude Altitude Speed Heading
2026-05-08 11:51 67.01150 -50.69751 146 ft 0 kts 64°
2026-05-08 11:56 67.01151 -50.69746 145 ft 2 kts 63°
2026-05-08 11:56 67.01185 -50.69646 148 ft 10 kts 38°
2026-05-08 11:56 67.01261 -50.69514 161 ft 18 kts 34°
2026-05-08 11:57 67.01398 -50.69245 187 ft 25 kts 37°
2026-05-08 11:57 67.01565 -50.68975 210 ft 33 kts 31°
2026-05-08 11:57 67.01709 -50.68810 218 ft 9 kts 320°
2026-05-08 11:57 67.01712 -50.68845 221 ft 0 kts 240°
2026-05-08 11:59 67.01713 -50.68843 221 ft 1 kts 240°
2026-05-08 11:59 67.01581 -50.69473 229 ft 83 kts 242°
2026-05-08 11:59 67.01167 -50.71426 191 ft 165 kts 242°
2026-05-08 12:00 67.00584 -50.74196 732 ft 190 kts 243°
2026-05-08 12:00 66.99985 -50.77210 1668 ft 193 kts 239°
2026-05-08 12:00 66.99156 -50.79793 2624 ft 194 kts 218°
2026-05-08 12:00 66.98004 -50.81484 3461 ft 199 kts 196°
2026-05-08 12:01 66.96618 -50.81890 4198 ft 210 kts 171°
2026-05-08 12:01 66.95245 -50.80649 5048 ft 215 kts 147°
2026-05-08 12:01 66.94079 -50.78241 5877 ft 223 kts 135°
2026-05-08 12:01 66.93007 -50.75218 6541 ft 243 kts 130°
2026-05-08 12:02 66.91878 -50.71942 7433 ft 253 kts 131°
2026-05-08 12:02 66.90698 -50.68660 8458 ft 257 kts 133°
2026-05-08 12:02 66.89466 -50.65399 9480 ft 261 kts 135°
2026-05-08 12:02 66.88054 -50.62589 10442 ft 263 kts 151°
2026-05-08 12:03 66.86424 -50.60649 11560 ft 259 kts 160°
2026-05-08 12:03 66.84794 -50.59079 12657 ft 254 kts 162°
2026-05-08 12:03 66.82979 -50.57812 12834 ft 284 kts 167°
2026-05-08 12:03 66.81029 -50.56624 13507 ft 298 kts 169°
2026-05-08 12:04 66.78988 -50.55414 14243 ft 309 kts 169°
2026-05-08 12:04 66.76887 -50.54174 15020 ft 317 kts 169°
2026-05-08 12:04 66.74733 -50.52905 15834 ft 324 kts 169°
2026-05-08 12:04 66.72503 -50.51597 16677 ft 330 kts 170°
2026-05-08 12:05 66.70261 -50.50283 17520 ft 335 kts 170°
2026-05-08 12:05 66.67999 -50.48960 18367 ft 338 kts 171°
2026-05-08 12:05 66.65721 -50.47628 19216 ft 340 kts 171°
2026-05-08 12:05 66.63427 -50.46292 20064 ft 342 kts 171°
2026-05-08 12:06 66.61062 -50.44923 20470 ft 358 kts 172°
2026-05-08 12:06 66.58607 -50.43500 20920 ft 372 kts 172°
2026-05-08 12:06 66.56038 -50.42012 21374 ft 386 kts 172°
2026-05-08 12:06 66.53397 -50.40486 21912 ft 397 kts 172°
2026-05-08 12:07 66.50728 -50.38235 22452 ft 416 kts 160°
2026-05-08 12:07 66.48081 -50.35180 23036 ft 426 kts 160°
2026-05-08 12:07 66.45360 -50.31968 23708 ft 432 kts 161°
2026-05-08 12:07 66.42539 -50.28633 24491 ft 437 kts 161°
2026-05-08 12:08 66.39775 -50.25378 25247 ft 440 kts 161°
2026-05-08 12:08 66.36925 -50.22025 26019 ft 443 kts 161°
2026-05-08 12:08 66.34146 -50.18762 26765 ft 446 kts 161°
2026-05-08 12:08 66.31342 -50.15476 27515 ft 448 kts 160°
2026-05-08 12:09 66.28303 -50.11923 28322 ft 449 kts 160°
2026-05-08 12:09 66.25259 -50.08376 29126 ft 450 kts 160°
2026-05-08 12:09 66.22401 -50.05055 29879 ft 450 kts 160°
2026-05-08 12:09 66.19580 -50.01781 30621 ft 449 kts 160°
2026-05-08 12:10 66.16750 -49.98504 31364 ft 448 kts 160°
2026-05-08 12:10 66.13949 -49.95272 32106 ft 446 kts 160°
2026-05-08 12:10 66.11170 -49.92073 32835 ft 443 kts 160°
2026-05-08 12:10 66.08366 -49.88857 33239 ft 448 kts 160°
2026-05-08 12:11 66.05549 -49.85627 33662 ft 452 kts 159°
2026-05-08 12:11 66.02705 -49.82380 34085 ft 455 kts 159°
2026-05-08 12:11 65.99829 -49.79101 34509 ft 459 kts 159°
2026-05-08 12:11 65.96923 -49.75797 34934 ft 462 kts 159°
2026-05-08 12:12 65.94019 -49.72506 35354 ft 465 kts 159°
2026-05-08 12:12 65.91103 -49.69205 35775 ft 467 kts 159°
2026-05-08 12:12 65.88152 -49.65876 36204 ft 469 kts 159°
2026-05-08 12:12 65.85201 -49.62554 36633 ft 472 kts 159°
2026-05-08 12:13 65.82222 -49.59210 37076 ft 473 kts 159°
2026-05-08 12:13 65.79265 -49.55897 37686 ft 470 kts 159°
2026-05-08 12:13 65.76305 -49.52592 38280 ft 466 kts 159°
2026-05-08 12:13 65.73381 -49.49333 38868 ft 462 kts 159°
2026-05-08 12:14 65.70459 -49.46085 39458 ft 457 kts 159°
2026-05-08 12:14 65.67599 -49.42916 40024 ft 451 kts 158°
2026-05-08 12:14 65.64733 -49.39748 40364 ft 450 kts 158°
2026-05-08 12:14 65.61908 -49.36631 40730 ft 448 kts 158°
2026-05-08 12:15 65.59072 -49.33593 40908 ft 451 kts 160°
2026-05-08 12:15 65.56164 -49.30579 40944 ft 457 kts 160°
2026-05-08 12:15 65.50267 -49.24495 40940 ft 470 kts 160°
2026-05-08 12:16 65.44188 -49.18255 40950 ft 485 kts 160°
2026-05-08 12:16 65.37910 -49.11848 40943 ft 501 kts 160°
2026-05-08 12:17 65.31536 -49.05369 40924 ft 489 kts 160°
2026-05-08 12:17 65.25340 -48.99112 40914 ft 489 kts 160°
2026-05-08 12:18 65.19027 -48.92769 40918 ft 500 kts 160°
2026-05-08 12:18 65.12613 -48.86355 40909 ft 499 kts 160°
2026-05-08 12:19 65.06269 -48.80045 40909 ft 496 kts 160°
2026-05-08 12:19 64.99921 -48.73761 40912 ft 497 kts 160°
2026-05-08 12:20 64.93556 -48.67498 40911 ft 498 kts 160°
2026-05-08 12:20 64.87166 -48.61237 40915 ft 498 kts 160°
2026-05-08 12:21 64.80798 -48.55037 40915 ft 498 kts 160°
2026-05-08 12:21 64.74433 -48.48865 40915 ft 498 kts 161°
2026-05-08 12:22 64.68040 -48.42702 40914 ft 498 kts 161°
2026-05-08 12:22 64.61837 -48.35640 40912 ft 504 kts 150°
2026-05-08 12:23 64.56095 -48.26384 40912 ft 505 kts 149°
2026-05-08 12:23 64.50393 -48.16988 40917 ft 505 kts 149°
2026-05-08 12:24 64.44666 -48.07597 40928 ft 506 kts 149°
2026-05-08 12:24 64.38940 -47.98252 40936 ft 506 kts 149°
2026-05-08 12:25 64.33207 -47.88949 40939 ft 506 kts 149°
2026-05-08 12:25 64.27442 -47.79639 40939 ft 506 kts 149°
2026-05-08 12:26 64.21698 -47.70411 40939 ft 506 kts 149°
2026-05-08 12:26 64.15943 -47.61215 40939 ft 506 kts 149°
2026-05-08 12:27 64.10161 -47.52020 40939 ft 507 kts 149°
2026-05-08 12:27 64.04390 -47.42894 40938 ft 508 kts 149°
2026-05-08 12:28 63.98602 -47.33782 40941 ft 508 kts 149°
2026-05-08 12:28 63.92823 -47.24736 40935 ft 507 kts 150°
2026-05-08 12:29 63.87014 -47.15688 40939 ft 507 kts 150°
2026-05-08 12:29 63.81215 -47.06701 40940 ft 508 kts 150°
2026-05-08 12:30 63.75415 -46.97757 40944 ft 507 kts 150°
2026-05-08 12:30 63.69604 -46.88842 40955 ft 508 kts 150°
2026-05-08 12:31 63.63779 -46.79951 40969 ft 508 kts 150°
2026-05-08 12:31 63.57940 -46.71084 40982 ft 509 kts 150°
2026-05-08 12:32 63.52095 -46.62251 40993 ft 510 kts 150°
2026-05-08 12:32 63.46222 -46.53419 40965 ft 504 kts 150°
2026-05-08 12:33 63.40435 -46.44763 40968 ft 503 kts 150°
2026-05-08 12:33 63.34626 -46.36117 40969 ft 506 kts 150°
2026-05-08 12:34 63.28803 -46.27491 40964 ft 505 kts 151°
2026-05-08 12:34 63.22979 -46.18905 40963 ft 503 kts 151°
2026-05-08 12:35 63.17170 -46.10386 40964 ft 503 kts 151°
2026-05-08 12:35 63.11354 -46.01896 40968 ft 503 kts 151°
2026-05-08 12:36 63.05500 -45.93397 40981 ft 507 kts 150°
2026-05-08 12:36 62.99627 -45.84904 40993 ft 508 kts 150°
2026-05-08 12:37 62.93753 -45.76454 41005 ft 507 kts 151°
2026-05-08 12:37 62.87900 -45.68076 41020 ft 505 kts 151°
2026-05-08 12:38 62.82019 -45.59699 41024 ft 506 kts 151°
2026-05-08 12:38 62.76148 -45.51376 41023 ft 506 kts 151°
2026-05-08 12:39 62.70281 -45.43098 41022 ft 505 kts 151°
2026-05-08 12:39 62.64384 -45.34819 41024 ft 506 kts 152°
2026-05-08 12:40 62.58498 -45.26595 41019 ft 505 kts 152°
2026-05-08 12:40 62.52611 -45.18408 41020 ft 506 kts 152°
2026-05-08 12:41 62.46704 -45.10232 41020 ft 507 kts 152°
2026-05-08 12:41 62.40757 -45.02040 41029 ft 508 kts 152°
2026-05-08 12:42 62.34823 -44.93904 41038 ft 508 kts 152°
2026-05-08 12:42 62.28877 -44.85792 41047 ft 510 kts 152°
2026-05-08 12:43 62.22891 -44.77664 41047 ft 510 kts 152°
2026-05-08 12:43 62.16923 -44.69598 41046 ft 510 kts 152°
2026-05-08 12:44 62.10926 -44.61531 41048 ft 511 kts 152°
2026-05-08 12:44 62.04931 -44.53506 41048 ft 512 kts 152°
2026-05-08 12:45 61.98895 -44.45462 41050 ft 513 kts 152°
2026-05-08 12:45 61.92871 -44.37473 41047 ft 512 kts 152°
2026-05-08 12:46 61.86851 -44.29528 41047 ft 512 kts 152°
2026-05-08 12:46 61.80807 -44.21588 41046 ft 512 kts 152°
2026-05-08 12:47 61.74774 -44.13700 41048 ft 513 kts 152°
2026-05-08 12:47 61.68742 -44.05848 41049 ft 512 kts 152°
2026-05-08 12:48 61.62704 -43.98027 41044 ft 512 kts 152°
2026-05-08 12:48 61.56637 -43.90204 41049 ft 513 kts 152°
2026-05-08 12:49 61.50569 -43.82416 41048 ft 514 kts 152°
2026-05-08 12:49 61.44506 -43.74668 41048 ft 514 kts 152°
2026-05-08 12:50 61.38401 -43.66906 41049 ft 514 kts 153°
2026-05-08 12:50 61.32322 -43.59212 41047 ft 513 kts 153°
2026-05-08 12:51 61.23187 -43.47714 41049 ft 515 kts 153°
2026-05-08 12:52 61.17058 -43.40043 41049 ft 515 kts 153°
2026-05-08 12:52 61.07889 -43.28636 41045 ft 515 kts 154°
2026-05-08 12:53 61.01782 -43.21082 41044 ft 515 kts 154°
2026-05-08 12:53 60.95641 -43.13519 41045 ft 515 kts 154°
2026-05-08 12:54 60.89509 -43.06002 41045 ft 516 kts 153°
2026-05-08 12:54 60.83365 -42.98501 41048 ft 516 kts 154°
2026-05-08 12:55 60.77227 -42.91047 41047 ft 516 kts 154°
2026-05-08 12:55 60.71057 -42.83585 41048 ft 517 kts 154°
2026-05-08 12:56 60.64883 -42.76152 41050 ft 518 kts 154°
2026-05-08 12:56 60.58698 -42.68738 41048 ft 518 kts 154°
2026-05-08 12:57 60.52473 -42.61310 41050 ft 519 kts 154°
2026-05-08 12:57 60.46248 -42.53916 41050 ft 520 kts 153°
2026-05-08 12:58 60.40043 -42.46578 41048 ft 520 kts 154°
2026-05-08 12:58 60.33808 -42.39239 41051 ft 522 kts 154°
2026-05-08 12:59 60.27538 -42.31890 41045 ft 522 kts 154°
2026-05-08 12:59 60.21298 -42.24607 41044 ft 521 kts 154°
2026-05-08 13:00 60.15050 -42.17353 41052 ft 522 kts 154°
2026-05-08 13:00 60.08751 -42.10069 41060 ft 523 kts 154°
2026-05-08 13:01 60.02488 -42.02857 41068 ft 522 kts 154°
2026-05-08 13:01 59.96110 -41.95858 41070 ft 521 kts 156°
2026-05-08 13:02 59.89735 -41.89073 41060 ft 521 kts 156°
2026-05-08 13:02 59.83193 -41.82149 41051 ft 522 kts 156°
2026-05-08 13:03 59.76808 -41.75421 41049 ft 523 kts 156°
2026-05-08 13:03 59.70409 -41.68705 41049 ft 523 kts 156°
2026-05-08 13:04 59.63978 -41.61987 41050 ft 525 kts 156°
2026-05-08 13:04 59.57465 -41.55214 41051 ft 526 kts 156°
2026-05-08 13:05 59.50997 -41.48517 41051 ft 528 kts 156°
2026-05-08 13:05 59.44555 -41.41873 41051 ft 529 kts 156°
2026-05-08 13:06 59.38027 -41.35174 41050 ft 531 kts 156°
2026-05-08 13:06 59.31506 -41.28507 41045 ft 531 kts 157°
2026-05-08 13:07 59.24944 -41.21831 41045 ft 533 kts 157°
2026-05-08 13:07 59.18330 -41.15131 41047 ft 534 kts 157°
2026-05-08 13:08 59.11768 -41.08509 41046 ft 535 kts 157°
2026-05-08 13:08 59.05184 -41.01900 41049 ft 536 kts 157°
2026-05-08 13:09 58.98595 -40.95310 41055 ft 536 kts 157°
2026-05-08 13:09 58.91941 -40.88684 41065 ft 537 kts 157°
2026-05-08 13:10 58.85283 -40.82085 41069 ft 537 kts 157°
2026-05-08 13:10 58.78658 -40.75545 41075 ft 538 kts 157°
2026-05-08 13:11 58.71998 -40.69000 41075 ft 538 kts 157°
2026-05-08 13:11 58.65369 -40.62517 41076 ft 538 kts 157°
2026-05-08 13:12 58.58724 -40.56039 41077 ft 538 kts 157°
2026-05-08 13:12 58.52088 -40.49599 41077 ft 538 kts 157°
2026-05-08 13:13 58.45417 -40.43156 41078 ft 538 kts 157°
2026-05-08 13:13 58.38769 -40.36764 41080 ft 538 kts 157°
2026-05-08 13:14 58.32187 -40.30456 41074 ft 538 kts 158°
2026-05-08 13:14 58.25506 -40.24085 41075 ft 538 kts 158°
2026-05-08 13:15 58.18852 -40.17764 41074 ft 538 kts 158°
2026-05-08 13:15 58.12185 -40.11458 41075 ft 538 kts 158°
2026-05-08 13:16 58.05524 -40.05185 41076 ft 539 kts 158°
2026-05-08 13:16 57.98761 -39.97902 41062 ft 544 kts 148°
2026-05-08 13:17 57.93159 -39.87962 41083 ft 550 kts 135°
2026-05-08 13:17 57.87732 -39.77879 41075 ft 549 kts 139°
2026-05-08 13:18 57.82199 -39.67967 41075 ft 549 kts 139°
2026-05-08 13:18 57.76690 -39.58146 41076 ft 550 kts 139°
2026-05-08 13:19 57.71155 -39.48323 41077 ft 551 kts 139°
2026-05-08 13:19 57.65597 -39.38502 41078 ft 552 kts 138°
2026-05-08 13:20 57.60011 -39.28672 41073 ft 553 kts 139°
2026-05-08 13:20 57.54440 -39.18917 41072 ft 553 kts 139°
2026-05-08 13:21 57.48855 -39.09176 41074 ft 554 kts 139°
2026-05-08 13:21 57.43240 -38.99429 41071 ft 553 kts 139°
2026-05-08 13:22 57.37677 -38.89813 41078 ft 554 kts 139°
2026-05-08 13:22 57.32059 -38.80144 41103 ft 554 kts 139°
2026-05-08 13:23 57.26426 -38.70492 41103 ft 553 kts 139°
2026-05-08 13:23 57.20780 -38.60859 41105 ft 553 kts 138°
2026-05-08 13:24 57.15154 -38.51304 41107 ft 553 kts 138°
2026-05-08 13:24 57.09505 -38.41751 41107 ft 553 kts 138°
2026-05-08 13:25 57.03832 -38.32194 41104 ft 553 kts 139°
2026-05-08 13:25 56.98178 -38.22717 41103 ft 553 kts 139°
2026-05-08 13:26 56.92523 -38.13276 41104 ft 552 kts 139°
2026-05-08 13:26 56.86865 -38.03870 41099 ft 552 kts 139°
2026-05-08 13:27 56.81185 -37.94475 41097 ft 551 kts 139°
2026-05-08 13:27 56.75540 -37.85164 41099 ft 549 kts 139°
2026-05-08 13:28 56.69878 -37.75872 41102 ft 550 kts 139°
2026-05-08 13:28 56.64184 -37.66567 41102 ft 551 kts 139°
2026-05-08 13:29 56.58507 -37.57327 41103 ft 551 kts 139°
2026-05-08 13:29 56.52818 -37.48108 41103 ft 550 kts 139°
2026-05-08 13:30 56.47137 -37.38939 41104 ft 550 kts 139°
2026-05-08 13:30 56.41430 -37.29768 41101 ft 550 kts 140°
2026-05-08 13:31 56.35732 -37.20651 41102 ft 551 kts 139°
2026-05-08 13:31 56.30021 -37.11550 41122 ft 550 kts 139°
2026-05-08 13:32 56.24292 -37.02456 41153 ft 550 kts 139°
2026-05-08 13:32 56.18574 -36.93420 41183 ft 551 kts 139°
2026-05-08 13:33 56.12834 -36.84384 41185 ft 551 kts 139°
2026-05-08 13:33 56.07085 -36.75372 41186 ft 551 kts 139°
2026-05-08 13:34 56.01326 -36.66384 41188 ft 551 kts 139°
2026-05-08 13:34 55.95562 -36.57423 41191 ft 553 kts 139°
2026-05-08 13:35 55.89777 -36.48467 41190 ft 554 kts 139°
2026-05-08 13:35 55.83970 -36.39510 41181 ft 552 kts 139°
2026-05-08 13:36 55.78182 -36.30622 41171 ft 553 kts 140°
2026-05-08 13:36 55.72392 -36.21768 41162 ft 552 kts 140°
2026-05-08 13:37 55.66604 -36.12951 41154 ft 551 kts 140°
2026-05-08 13:37 55.60782 -36.04121 41155 ft 552 kts 140°
2026-05-08 13:38 55.54961 -35.95326 41158 ft 553 kts 140°
2026-05-08 13:38 55.49146 -35.86577 41153 ft 552 kts 140°
2026-05-08 13:39 55.43304 -35.77819 41158 ft 553 kts 140°
2026-05-08 13:39 55.37465 -35.69105 41158 ft 553 kts 140°
2026-05-08 13:40 55.31622 -35.60416 41158 ft 553 kts 140°
2026-05-08 13:40 55.25775 -35.51759 41161 ft 553 kts 139°
2026-05-08 13:41 55.19885 -35.43075 41160 ft 554 kts 139°
2026-05-08 13:41 55.14026 -35.34465 41162 ft 553 kts 140°
2026-05-08 13:42 55.08153 -35.25872 41159 ft 554 kts 140°
2026-05-08 13:42 55.02244 -35.17260 41159 ft 554 kts 140°
2026-05-08 13:43 54.96352 -35.08708 41161 ft 554 kts 140°
2026-05-08 13:43 54.90449 -35.00171 41162 ft 555 kts 140°
2026-05-08 13:44 54.84536 -34.91658 41151 ft 554 kts 140°
2026-05-08 13:44 54.78604 -34.83149 41153 ft 554 kts 140°
2026-05-08 13:45 54.72686 -34.74691 41154 ft 555 kts 140°
2026-05-08 13:45 54.66762 -34.66259 41155 ft 554 kts 140°
2026-05-08 13:46 54.60800 -34.57807 41156 ft 556 kts 140°
2026-05-08 13:46 54.54852 -34.49408 41157 ft 555 kts 140°
2026-05-08 13:47 54.48903 -34.41039 41157 ft 555 kts 139°
2026-05-08 13:47 54.42942 -34.32683 41155 ft 556 kts 140°
2026-05-08 13:48 54.36949 -34.24319 41156 ft 556 kts 140°
2026-05-08 13:48 54.30970 -34.16008 41157 ft 556 kts 140°
2026-05-08 13:49 54.24987 -34.07719 41158 ft 557 kts 140°
2026-05-08 13:49 54.18968 -33.99415 41159 ft 557 kts 140°
2026-05-08 13:50 54.12998 -33.91207 41160 ft 557 kts 140°
2026-05-08 13:50 54.06985 -33.82975 41161 ft 557 kts 140°
2026-05-08 13:51 54.00976 -33.74778 41162 ft 557 kts 140°
2026-05-08 13:51 53.94931 -33.66564 41163 ft 557 kts 140°
2026-05-08 13:52 53.88913 -33.58419 41159 ft 557 kts 140°
2026-05-08 13:52 53.82894 -33.50301 41152 ft 555 kts 140°
2026-05-08 13:53 53.76865 -33.42201 41154 ft 555 kts 140°
2026-05-08 13:53 53.70838 -33.34136 41154 ft 555 kts 141°
2026-05-08 13:54 53.64815 -33.26104 41152 ft 554 kts 141°
2026-05-08 13:54 53.58789 -33.18102 41153 ft 554 kts 141°
2026-05-08 13:55 53.52740 -33.10095 41155 ft 554 kts 141°
2026-05-08 13:56 53.43685 -32.98168 41155 ft 553 kts 140°
2026-05-08 13:56 53.37664 -32.90274 41155 ft 552 kts 140°
2026-05-08 13:57 53.31609 -32.82366 41159 ft 553 kts 140°
2026-05-08 13:57 53.25575 -32.74510 41159 ft 553 kts 140°
2026-05-08 13:58 53.19540 -32.66686 41160 ft 553 kts 140°
2026-05-08 13:58 53.13472 -32.58846 41161 ft 553 kts 140°
2026-05-08 13:59 53.07414 -32.51048 41161 ft 553 kts 140°
2026-05-08 13:59 53.01362 -32.43286 41162 ft 553 kts 140°
2026-05-08 14:00 52.95302 -32.35542 41164 ft 553 kts 140°
2026-05-08 14:00 52.89217 -32.27794 41159 ft 552 kts 141°
2026-05-08 14:01 52.83155 -32.20104 41151 ft 552 kts 141°
2026-05-08 14:01 52.77086 -32.12434 41150 ft 552 kts 141°
2026-05-08 14:02 52.70977 -32.04738 41145 ft 552 kts 141°
2026-05-08 14:02 52.64898 -31.97113 41148 ft 552 kts 141°
2026-05-08 14:03 52.58823 -31.89512 41154 ft 551 kts 141°
2026-05-08 14:03 52.52743 -31.81936 41155 ft 552 kts 141°
2026-05-08 14:04 52.46626 -31.74343 41156 ft 552 kts 141°
2026-05-08 14:04 52.40645 -31.66942 41157 ft 552 kts 141°
2026-05-08 14:05 52.34544 -31.59420 41158 ft 552 kts 141°
2026-05-08 14:05 52.28422 -31.51900 41159 ft 552 kts 141°
2026-05-08 14:06 52.22311 -31.44420 41160 ft 552 kts 141°
2026-05-08 14:06 52.16201 -31.36966 41161 ft 552 kts 141°
2026-05-08 14:07 52.10081 -31.29526 41160 ft 552 kts 142°
2026-05-08 14:07 52.03937 -31.22084 41160 ft 552 kts 142°
2026-05-08 14:08 51.97806 -31.14686 41167 ft 552 kts 141°
2026-05-08 14:08 51.91673 -31.07307 41187 ft 553 kts 141°
2026-05-08 14:09 51.85507 -30.99914 41192 ft 553 kts 142°
2026-05-08 14:09 51.79359 -30.92571 41205 ft 553 kts 142°
2026-05-08 14:10 51.73201 -30.85242 41207 ft 553 kts 142°
2026-05-08 14:10 51.67040 -30.77933 41207 ft 552 kts 142°
2026-05-08 14:11 51.60868 -30.70637 41208 ft 551 kts 142°
2026-05-08 14:11 51.54709 -30.63382 41210 ft 552 kts 142°
2026-05-08 14:12 51.48540 -30.56138 41210 ft 552 kts 142°
2026-05-08 14:12 51.42337 -30.48881 41211 ft 552 kts 142°
2026-05-08 14:13 51.36164 -30.41683 41212 ft 552 kts 142°
2026-05-08 14:13 51.29988 -30.34506 41213 ft 552 kts 142°
2026-05-08 14:14 51.23800 -30.27340 41212 ft 552 kts 142°
2026-05-08 14:14 51.17577 -30.20158 41211 ft 553 kts 142°
2026-05-08 14:15 51.11374 -30.13022 41204 ft 553 kts 142°
2026-05-08 14:15 51.05161 -30.05901 41196 ft 553 kts 142°
2026-05-08 14:16 50.98975 -29.98682 41177 ft 551 kts 137°
2026-05-08 14:16 50.93274 -29.90686 41190 ft 550 kts 136°
2026-05-08 14:17 50.87539 -29.82761 41178 ft 549 kts 136°
2026-05-08 14:17 50.81803 -29.74868 41180 ft 550 kts 136°
2026-05-08 14:18 50.76031 -29.66951 41180 ft 551 kts 136°
2026-05-08 14:18 50.70274 -29.59082 41180 ft 550 kts 136°
2026-05-08 14:19 50.64510 -29.51233 41182 ft 550 kts 136°
2026-05-08 14:19 50.58728 -29.43381 41182 ft 550 kts 136°
2026-05-08 14:20 50.52954 -29.35566 41184 ft 550 kts 136°
2026-05-08 14:20 50.47169 -29.27766 41182 ft 551 kts 137°
2026-05-08 14:21 50.41379 -29.19984 41183 ft 551 kts 137°
2026-05-08 14:21 50.35567 -29.12199 41184 ft 550 kts 137°
2026-05-08 14:22 50.29770 -29.04460 41185 ft 550 kts 137°
2026-05-08 14:22 50.23971 -28.96743 41185 ft 550 kts 137°
2026-05-08 14:23 50.18148 -28.89020 41186 ft 550 kts 137°
2026-05-08 14:23 50.12344 -28.81348 41187 ft 550 kts 137°
2026-05-08 14:24 50.06534 -28.73695 41189 ft 550 kts 137°
2026-05-08 14:24 50.00723 -28.66062 41189 ft 549 kts 137°
2026-05-08 14:25 49.94883 -28.58417 41190 ft 549 kts 137°
2026-05-08 14:25 49.89049 -28.50807 41185 ft 550 kts 137°
2026-05-08 14:26 49.83223 -28.43230 41179 ft 549 kts 137°
2026-05-08 14:26 49.77375 -28.35650 41179 ft 549 kts 137°
2026-05-08 14:27 49.71533 -28.28104 41179 ft 550 kts 138°
2026-05-08 14:27 49.65693 -28.20583 41181 ft 550 kts 138°
2026-05-08 14:28 49.59846 -28.13078 41181 ft 550 kts 138°
2026-05-08 14:28 49.53974 -28.05565 41182 ft 550 kts 138°
2026-05-08 14:29 49.48119 -27.98099 41185 ft 549 kts 138°
2026-05-08 14:29 49.42270 -27.90663 41183 ft 548 kts 138°
2026-05-08 14:30 49.36395 -27.83218 41184 ft 548 kts 138°
2026-05-08 14:30 49.30531 -27.75811 41184 ft 548 kts 138°
2026-05-08 14:31 49.24668 -27.68428 41184 ft 548 kts 138°
2026-05-08 14:31 49.18792 -27.61052 41172 ft 548 kts 138°
2026-05-08 14:32 49.09970 -27.50025 41161 ft 548 kts 138°
2026-05-08 14:32 49.04099 -27.42714 41161 ft 548 kts 138°
2026-05-08 14:33 48.98229 -27.35427 41163 ft 547 kts 138°
2026-05-08 14:33 48.92333 -27.28132 41163 ft 547 kts 139°
2026-05-08 14:34 48.86457 -27.20882 41151 ft 546 kts 139°
2026-05-08 14:34 48.80588 -27.13666 41150 ft 546 kts 139°
2026-05-08 14:35 48.74689 -27.06434 41144 ft 547 kts 139°
2026-05-08 14:35 48.68805 -26.99244 41131 ft 547 kts 139°
2026-05-08 14:36 48.62914 -26.92067 41112 ft 546 kts 139°
2026-05-08 14:36 48.57004 -26.84888 41093 ft 545 kts 139°
2026-05-08 14:37 48.51078 -26.77714 41082 ft 545 kts 139°
2026-05-08 14:37 48.45191 -26.70608 41103 ft 545 kts 139°
2026-05-08 14:38 48.39302 -26.63521 41102 ft 545 kts 139°
2026-05-08 14:38 48.33383 -26.56420 41105 ft 545 kts 139°
2026-05-08 14:39 48.27485 -26.49366 41106 ft 545 kts 139°
2026-05-08 14:39 48.21589 -26.42335 41105 ft 544 kts 139°
2026-05-08 14:40 48.15689 -26.35322 41106 ft 544 kts 139°
2026-05-08 14:40 48.09756 -26.28288 41103 ft 544 kts 140°
2026-05-08 14:41 48.03847 -26.21307 41106 ft 544 kts 140°
2026-05-08 14:41 47.97940 -26.14348 41106 ft 544 kts 140°
2026-05-08 14:42 47.92002 -26.07374 41097 ft 544 kts 140°
2026-05-08 14:42 47.86056 -26.00411 41079 ft 544 kts 140°
2026-05-08 14:43 47.80130 -25.93492 41074 ft 544 kts 140°
2026-05-08 14:43 47.74201 -25.86590 41074 ft 544 kts 140°
2026-05-08 14:44 47.68250 -25.79684 41072 ft 544 kts 140°
2026-05-08 14:44 47.62316 -25.72817 41073 ft 543 kts 140°
2026-05-08 14:45 47.56388 -25.65978 41074 ft 543 kts 140°
2026-05-08 14:45 47.50425 -25.59119 41075 ft 543 kts 140°
2026-05-08 14:46 47.44487 -25.52308 41066 ft 542 kts 140°
2026-05-08 14:46 47.38547 -25.45515 41058 ft 542 kts 140°
2026-05-08 14:47 47.32621 -25.38757 41050 ft 541 kts 141°
2026-05-08 14:47 47.26670 -25.31992 41049 ft 541 kts 141°
2026-05-08 14:48 47.20732 -25.25262 41049 ft 541 kts 141°
2026-05-08 14:48 47.14801 -25.18557 41050 ft 541 kts 141°
2026-05-08 14:49 47.08844 -25.11844 41050 ft 540 kts 141°
2026-05-08 14:49 47.02907 -25.05171 41051 ft 540 kts 141°
2026-05-08 14:50 46.96971 -24.98520 41052 ft 540 kts 141°
2026-05-08 14:50 46.91029 -24.91880 41052 ft 540 kts 142°
2026-05-08 14:51 46.85071 -24.85242 41044 ft 539 kts 142°
2026-05-08 14:51 46.79143 -24.78655 41045 ft 539 kts 142°
2026-05-08 14:52 46.70214 -24.68770 41046 ft 538 kts 142°
2026-05-08 14:53 46.64280 -24.62226 41047 ft 539 kts 142°
2026-05-08 14:53 46.58329 -24.55679 41049 ft 538 kts 142°
2026-05-08 14:54 46.52388 -24.49163 41048 ft 537 kts 142°
2026-05-08 14:54 46.46418 -24.42632 41050 ft 538 kts 142°
2026-05-08 14:55 46.40476 -24.36151 41049 ft 537 kts 142°
2026-05-08 14:55 46.34533 -24.29685 41047 ft 537 kts 143°
2026-05-08 14:56 46.28586 -24.23236 41048 ft 537 kts 143°
2026-05-08 14:56 46.22614 -24.16776 41044 ft 537 kts 143°
2026-05-08 14:57 46.16661 -24.10355 41030 ft 536 kts 143°
2026-05-08 14:57 46.10720 -24.03963 41025 ft 536 kts 143°
2026-05-08 14:58 46.04748 -23.97557 41024 ft 536 kts 143°
2026-05-08 14:58 45.98793 -23.91186 41024 ft 536 kts 143°
2026-05-08 14:59 45.92834 -23.84829 41024 ft 536 kts 143°
2026-05-08 14:59 45.83871 -23.75300 41018 ft 536 kts 143°
2026-05-08 15:00 45.77924 -23.68998 41019 ft 536 kts 143°
2026-05-08 15:00 45.71956 -23.62692 41019 ft 535 kts 143°
2026-05-08 15:01 45.65992 -23.56407 41020 ft 535 kts 143°
2026-05-08 15:01 45.60007 -23.50116 41021 ft 535 kts 143°
2026-05-08 15:02 45.54032 -23.43854 41023 ft 535 kts 143°
2026-05-08 15:02 45.48071 -23.37622 41021 ft 534 kts 143°
2026-05-08 15:03 45.42088 -23.31384 41020 ft 534 kts 144°
2026-05-08 15:03 45.36109 -23.25168 41021 ft 534 kts 144°
2026-05-08 15:04 45.30141 -23.18980 41020 ft 533 kts 144°
2026-05-08 15:04 45.24182 -23.12816 41021 ft 533 kts 144°
2026-05-08 15:05 45.18190 -23.06636 41022 ft 534 kts 144°
2026-05-08 15:05 45.12219 -23.00494 41022 ft 532 kts 144°
2026-05-08 15:06 45.06258 -22.94377 41023 ft 532 kts 144°
2026-05-08 15:06 45.00322 -22.88304 41024 ft 533 kts 144°
2026-05-08 15:07 44.94345 -22.82203 41024 ft 533 kts 144°
2026-05-08 15:07 44.88367 -22.76118 41019 ft 532 kts 144°
2026-05-08 15:08 44.83380 -22.71054 41019 ft 531 kts 144°
2026-05-08 15:08 44.76413 -22.63998 41020 ft 531 kts 144°
2026-05-08 15:09 44.70437 -22.57960 41020 ft 532 kts 144°
2026-05-08 15:09 44.64461 -22.51941 41022 ft 531 kts 144°
2026-05-08 15:10 44.58470 -22.45921 41020 ft 530 kts 144°
2026-05-08 15:10 44.52496 -22.39934 41022 ft 530 kts 144°
2026-05-08 15:11 44.46517 -22.33957 41021 ft 531 kts 145°
2026-05-08 15:11 44.40532 -22.27990 41010 ft 530 kts 145°
2026-05-08 15:12 44.34528 -22.22019 40999 ft 530 kts 145°
2026-05-08 15:12 44.28560 -22.16098 40994 ft 529 kts 145°
2026-05-08 15:13 44.22665 -22.10266 40994 ft 529 kts 145°
2026-05-08 15:13 44.16653 -22.04332 40995 ft 529 kts 145°
2026-05-08 15:14 44.10667 -21.98440 40995 ft 529 kts 145°
2026-05-08 15:14 44.04680 -21.92560 40995 ft 529 kts 145°
2026-05-08 15:15 43.98694 -21.86697 40996 ft 529 kts 145°
2026-05-08 15:15 43.92683 -21.80824 40996 ft 529 kts 145°
2026-05-08 15:16 43.86692 -21.74986 40993 ft 529 kts 145°
2026-05-08 15:16 43.80695 -21.69156 40990 ft 529 kts 145°
2026-05-08 15:17 43.74678 -21.63323 40980 ft 528 kts 145°
2026-05-08 15:17 43.68684 -21.57525 40970 ft 528 kts 145°
2026-05-08 15:18 43.62696 -21.51747 40967 ft 528 kts 145°
2026-05-08 15:18 43.56699 -21.45975 40969 ft 528 kts 145°
2026-05-08 15:19 43.50692 -21.40207 40967 ft 527 kts 145°
2026-05-08 15:19 43.44750 -21.34516 40968 ft 527 kts 146°
2026-05-08 15:20 43.38762 -21.28795 40966 ft 527 kts 146°
2026-05-08 15:20 43.32748 -21.23062 40965 ft 526 kts 146°
2026-05-08 15:21 43.26769 -21.17378 40967 ft 526 kts 146°
2026-05-08 15:21 43.20779 -21.11697 40967 ft 526 kts 146°
2026-05-08 15:22 43.14782 -21.06024 40962 ft 526 kts 146°
2026-05-08 15:22 43.08761 -21.00341 40956 ft 526 kts 146°
2026-05-08 15:23 43.02762 -20.94693 40951 ft 526 kts 146°
2026-05-08 15:23 42.96762 -20.89057 40945 ft 526 kts 146°
2026-05-08 15:24 42.90739 -20.83413 40942 ft 526 kts 146°
2026-05-08 15:24 42.84737 -20.77803 40938 ft 525 kts 146°
2026-05-08 15:25 42.78744 -20.72214 40939 ft 525 kts 146°
2026-05-08 15:25 42.72777 -20.66664 40939 ft 525 kts 146°
2026-05-08 15:26 42.66747 -20.61068 40939 ft 525 kts 146°
2026-05-08 15:26 42.60738 -20.55504 40940 ft 525 kts 146°
2026-05-08 15:27 42.54729 -20.49955 40940 ft 525 kts 146°
2026-05-08 15:27 42.48682 -20.44382 40940 ft 525 kts 146°
2026-05-08 15:28 42.42668 -20.38853 40941 ft 525 kts 146°
2026-05-08 15:28 42.36656 -20.33340 40941 ft 525 kts 146°
2026-05-08 15:29 42.30651 -20.27845 40939 ft 524 kts 146°
2026-05-08 15:29 42.24622 -20.22342 40940 ft 524 kts 146°
2026-05-08 15:30 42.18612 -20.16870 40940 ft 524 kts 146°
2026-05-08 15:30 42.12596 -20.11404 40940 ft 524 kts 146°
2026-05-08 15:31 42.06556 -20.05928 40940 ft 524 kts 146°
2026-05-08 15:31 42.00539 -20.00486 40941 ft 524 kts 146°
2026-05-08 15:32 41.95057 -19.94131 40944 ft 524 kts 137°
2026-05-08 15:32 41.89658 -19.87612 40942 ft 525 kts 138°
2026-05-08 15:33 41.84217 -19.81115 40938 ft 524 kts 138°
2026-05-08 15:33 41.78796 -19.74657 40939 ft 524 kts 138°
2026-05-08 15:34 41.73372 -19.68213 40939 ft 524 kts 138°
2026-05-08 15:34 41.67918 -19.61746 40940 ft 524 kts 139°
2026-05-08 15:35 41.62488 -19.55324 40940 ft 524 kts 139°
2026-05-08 15:35 41.57053 -19.48912 40940 ft 524 kts 139°
2026-05-08 15:36 41.51611 -19.42505 40941 ft 524 kts 139°
2026-05-08 15:36 41.46147 -19.36088 40941 ft 524 kts 139°
2026-05-08 15:37 41.40703 -19.29710 40935 ft 524 kts 139°
2026-05-08 15:37 41.35253 -19.23339 40927 ft 523 kts 139°
2026-05-08 15:38 41.29797 -19.16975 40917 ft 522 kts 139°
2026-05-08 15:38 41.24349 -19.10636 40913 ft 523 kts 139°
2026-05-08 15:39 41.18903 -19.04314 40913 ft 523 kts 139°
2026-05-08 15:39 41.13458 -18.98007 40913 ft 522 kts 139°
2026-05-08 15:40 41.07984 -18.91681 40913 ft 522 kts 139°
2026-05-08 15:40 41.02532 -18.85396 40912 ft 522 kts 139°
2026-05-08 15:41 40.97086 -18.79131 40914 ft 521 kts 140°
2026-05-08 15:41 40.91622 -18.72860 40914 ft 521 kts 140°
2026-05-08 15:42 40.86171 -18.66617 40913 ft 521 kts 140°
2026-05-08 15:42 40.80713 -18.60382 40912 ft 521 kts 140°
2026-05-08 15:43 40.75248 -18.54152 40913 ft 521 kts 140°
2026-05-08 15:43 40.69774 -18.47926 40913 ft 521 kts 140°
2026-05-08 15:44 40.64314 -18.41731 40914 ft 521 kts 140°
2026-05-08 15:44 40.58851 -18.35545 40914 ft 521 kts 140°
2026-05-08 15:45 40.53366 -18.29348 40911 ft 520 kts 140°
2026-05-08 15:45 40.47901 -18.23188 40912 ft 520 kts 140°
2026-05-08 15:46 40.42432 -18.17038 40913 ft 520 kts 140°
2026-05-08 15:46 40.36959 -18.10896 40913 ft 520 kts 140°
2026-05-08 15:47 40.31463 -18.04741 40911 ft 520 kts 140°
2026-05-08 15:47 40.25985 -17.98621 40913 ft 520 kts 140°
2026-05-08 15:48 40.17777 -17.89476 40913 ft 520 kts 140°
2026-05-08 15:49 40.12276 -17.83364 40915 ft 520 kts 140°
2026-05-08 15:49 40.06799 -17.77291 40912 ft 520 kts 140°
2026-05-08 15:50 40.01308 -17.71218 40915 ft 520 kts 141°
2026-05-08 15:50 39.95797 -17.65134 40913 ft 519 kts 141°
2026-05-08 15:51 39.90308 -17.59089 40914 ft 519 kts 141°
2026-05-08 15:51 39.84821 -17.53057 40914 ft 520 kts 141°
2026-05-08 15:52 39.79326 -17.47033 40913 ft 519 kts 141°
2026-05-08 15:52 39.73808 -17.40994 40915 ft 518 kts 141°
2026-05-08 15:53 39.68325 -17.35006 40912 ft 517 kts 141°
2026-05-08 15:53 39.62840 -17.29030 40913 ft 517 kts 142°
2026-05-08 15:54 39.57332 -17.23042 40913 ft 517 kts 142°
2026-05-08 15:54 39.51851 -17.17095 40912 ft 516 kts 142°
2026-05-08 15:55 39.46370 -17.11162 40911 ft 516 kts 142°
2026-05-08 15:55 39.38133 -17.02269 40910 ft 515 kts 142°
2026-05-08 15:56 39.32685 -16.96402 40898 ft 515 kts 142°
2026-05-08 15:56 39.27206 -16.90514 40885 ft 514 kts 142°
2026-05-08 15:57 39.21737 -16.84649 40872 ft 515 kts 142°
2026-05-08 15:57 39.16232 -16.78759 40860 ft 514 kts 142°
2026-05-08 15:58 39.10759 -16.72913 40857 ft 514 kts 142°
2026-05-08 15:58 39.05280 -16.67075 40858 ft 514 kts 142°
2026-05-08 15:59 38.99779 -16.61225 40858 ft 514 kts 142°
2026-05-08 15:59 38.94296 -16.55407 40860 ft 513 kts 142°
2026-05-08 16:00 38.88813 -16.49600 40862 ft 513 kts 142°
2026-05-08 16:00 38.83329 -16.43805 40859 ft 513 kts 142°
2026-05-08 16:01 38.77825 -16.38000 40860 ft 513 kts 142°
2026-05-08 16:01 38.72332 -16.32220 40859 ft 513 kts 143°
2026-05-08 16:02 38.66842 -16.26453 40857 ft 513 kts 143°
2026-05-08 16:02 38.61330 -16.20674 40856 ft 513 kts 143°
2026-05-08 16:03 38.55833 -16.14926 40859 ft 513 kts 143°
2026-05-08 16:03 38.50341 -16.09192 40857 ft 512 kts 143°
2026-05-08 16:04 38.44845 -16.03467 40858 ft 512 kts 143°
2026-05-08 16:04 38.39332 -15.97732 40858 ft 512 kts 143°
2026-05-08 16:05 38.33848 -15.92046 40859 ft 510 kts 143°
2026-05-08 16:05 38.28366 -15.86369 40860 ft 511 kts 143°
2026-05-08 16:06 38.22848 -15.80667 40859 ft 511 kts 143°
2026-05-08 16:06 38.17354 -15.75001 40857 ft 511 kts 143°
2026-05-08 16:07 38.11858 -15.69344 40859 ft 511 kts 143°
2026-05-08 16:07 38.06353 -15.63690 40860 ft 511 kts 143°
2026-05-08 16:08 38.00839 -15.58035 40858 ft 510 kts 143°
2026-05-08 16:08 37.95340 -15.52411 40859 ft 511 kts 143°
2026-05-08 16:09 37.89829 -15.46784 40859 ft 511 kts 143°
2026-05-08 16:09 37.84303 -15.41152 40861 ft 511 kts 144°
2026-05-08 16:10 37.78799 -15.35554 40863 ft 510 kts 144°
2026-05-08 16:10 37.73299 -15.29971 40858 ft 510 kts 144°
2026-05-08 16:11 37.67797 -15.24398 40858 ft 509 kts 144°
2026-05-08 16:11 37.62279 -15.18819 40859 ft 509 kts 145°
2026-05-08 16:12 37.56785 -15.13277 40859 ft 508 kts 145°
2026-05-08 16:12 37.51287 -15.07740 40859 ft 508 kts 145°
2026-05-08 16:13 37.45775 -15.02198 40859 ft 508 kts 145°
2026-05-08 16:13 37.40276 -14.96683 40858 ft 507 kts 145°
2026-05-08 16:14 37.34779 -14.91178 40858 ft 507 kts 145°
2026-05-08 16:14 37.29283 -14.85687 40857 ft 507 kts 145°
2026-05-08 16:15 37.23773 -14.80191 40857 ft 507 kts 145°
2026-05-08 16:15 37.18280 -14.74720 40858 ft 506 kts 145°
2026-05-08 16:16 37.12794 -14.69271 40858 ft 505 kts 145°
2026-05-08 16:16 37.07288 -14.63811 40859 ft 506 kts 146°
2026-05-08 16:17 37.01785 -14.58365 40859 ft 507 kts 146°
2026-05-08 16:17 36.96282 -14.52927 40857 ft 507 kts 146°
2026-05-08 16:18 36.90779 -14.47501 40857 ft 506 kts 146°
2026-05-08 16:18 36.85252 -14.42062 40864 ft 506 kts 146°
2026-05-08 16:19 36.79747 -14.36653 40865 ft 507 kts 146°
2026-05-08 16:19 36.74223 -14.31237 40857 ft 506 kts 147°
2026-05-08 16:20 36.68697 -14.25829 40857 ft 506 kts 147°
2026-05-08 16:20 36.63183 -14.20443 40858 ft 507 kts 147°
2026-05-08 16:21 36.57662 -14.15061 40858 ft 507 kts 147°
2026-05-08 16:21 36.52141 -14.09686 40857 ft 506 kts 147°
2026-05-08 16:22 36.46599 -14.04305 40858 ft 507 kts 147°
2026-05-08 16:22 36.41069 -13.98942 40859 ft 507 kts 147°
2026-05-08 16:23 36.35550 -13.93602 40857 ft 506 kts 147°
2026-05-08 16:23 36.30002 -13.88243 40857 ft 507 kts 147°
2026-05-08 16:24 36.24467 -13.82906 40857 ft 507 kts 147°
2026-05-08 16:24 36.18932 -13.77579 40859 ft 506 kts 147°
2026-05-08 16:25 36.13371 -13.72237 40857 ft 507 kts 147°
2026-05-08 16:25 36.07808 -13.66904 40858 ft 507 kts 147°
2026-05-08 16:26 36.02262 -13.61595 40858 ft 507 kts 147°
2026-05-08 16:26 35.96720 -13.56297 40857 ft 506 kts 147°
2026-05-08 16:27 35.91156 -13.50993 40858 ft 507 kts 148°
2026-05-08 16:27 35.85592 -13.45699 40866 ft 508 kts 148°
2026-05-08 16:28 35.80027 -13.40411 40865 ft 508 kts 148°
2026-05-08 16:28 35.74460 -13.35131 40864 ft 507 kts 148°
2026-05-08 16:29 35.68881 -13.29848 40858 ft 505 kts 148°
2026-05-08 16:29 35.63333 -13.24605 40856 ft 506 kts 149°
2026-05-08 16:30 35.57781 -13.19370 40857 ft 506 kts 149°
2026-05-08 16:30 35.52187 -13.14102 40863 ft 506 kts 149°
2026-05-08 16:31 35.46635 -13.08884 40867 ft 506 kts 149°
2026-05-08 16:31 35.41070 -13.03663 40873 ft 506 kts 149°
2026-05-08 16:32 35.35510 -12.98455 40880 ft 506 kts 149°
2026-05-08 16:32 35.29923 -12.93232 40885 ft 506 kts 149°
2026-05-08 16:33 35.24357 -12.88038 40885 ft 506 kts 149°
2026-05-08 16:33 35.18789 -12.82850 40884 ft 506 kts 149°
2026-05-08 16:34 35.13199 -12.77653 40883 ft 506 kts 150°
2026-05-08 16:34 35.07626 -12.72479 40884 ft 506 kts 150°
2026-05-08 16:35 35.02053 -12.67315 40885 ft 506 kts 150°
2026-05-08 16:35 34.96478 -12.62158 40884 ft 506 kts 150°
2026-05-08 16:36 34.90857 -12.56966 40884 ft 505 kts 150°
2026-05-08 16:36 34.85274 -12.51820 40895 ft 506 kts 150°
2026-05-08 16:37 34.79694 -12.46686 40895 ft 505 kts 150°
2026-05-08 16:37 34.74088 -12.41536 40894 ft 505 kts 150°
2026-05-08 16:38 34.68504 -12.36417 40896 ft 505 kts 150°
2026-05-08 16:38 34.62924 -12.31308 40883 ft 504 kts 151°
2026-05-08 16:39 34.57357 -12.26221 40881 ft 504 kts 152°
2026-05-08 16:39 34.51761 -12.21117 40884 ft 504 kts 152°
2026-05-08 16:40 34.46182 -12.16035 40889 ft 504 kts 152°
2026-05-08 16:40 34.40607 -12.10967 40894 ft 504 kts 152°
2026-05-08 16:41 34.35008 -12.05885 40902 ft 504 kts 152°
2026-05-08 16:42 34.26635 -11.98301 40909 ft 504 kts 152°
2026-05-08 16:42 34.21042 -11.93249 40909 ft 504 kts 152°
2026-05-08 16:43 34.15438 -11.88194 40910 ft 504 kts 152°
2026-05-08 16:43 34.09852 -11.83163 40912 ft 504 kts 152°
2026-05-08 16:44 34.04266 -11.78140 40908 ft 503 kts 152°
2026-05-08 16:44 33.98698 -11.73141 40908 ft 502 kts 152°
2026-05-08 16:45 33.93099 -11.68125 40910 ft 502 kts 152°
2026-05-08 16:45 33.87519 -11.63134 40920 ft 503 kts 152°
2026-05-08 16:46 33.81925 -11.58137 40924 ft 504 kts 153°
2026-05-08 16:46 33.76297 -11.53120 40922 ft 504 kts 153°
2026-05-08 16:47 33.71057 -11.48454 40922 ft 504 kts 153°
2026-05-08 16:47 33.65281 -11.43320 40922 ft 504 kts 153°
2026-05-08 16:48 33.59658 -11.38333 40924 ft 504 kts 153°
2026-05-08 16:48 33.54021 -11.33338 40918 ft 505 kts 153°
2026-05-08 16:49 33.48382 -11.28352 40925 ft 504 kts 153°
2026-05-08 16:49 33.42746 -11.23376 40935 ft 504 kts 154°
2026-05-08 16:50 33.37100 -11.18401 40934 ft 504 kts 153°
2026-05-08 16:50 33.31478 -11.13454 40936 ft 504 kts 153°
2026-05-08 16:51 33.25854 -11.08513 40934 ft 505 kts 154°
2026-05-08 16:51 33.20209 -11.03564 40935 ft 506 kts 154°
2026-05-08 16:52 33.14545 -10.98603 40936 ft 506 kts 154°
2026-05-08 16:52 33.08890 -10.93659 40934 ft 505 kts 154°
2026-05-08 16:53 33.00412 -10.86263 40935 ft 506 kts 154°
2026-05-08 16:53 32.94732 -10.81318 40936 ft 506 kts 154°
2026-05-08 16:54 32.89126 -10.76445 40940 ft 506 kts 154°
2026-05-08 16:54 32.83448 -10.71518 40949 ft 506 kts 154°
2026-05-08 16:55 32.77803 -10.66628 40948 ft 507 kts 154°
2026-05-08 16:55 32.72062 -10.61662 40947 ft 508 kts 154°
2026-05-08 16:56 32.66321 -10.56702 40948 ft 507 kts 154°
2026-05-08 16:56 32.60706 -10.51861 40949 ft 507 kts 154°
2026-05-08 16:57 32.54965 -10.46919 40948 ft 507 kts 154°
2026-05-08 16:57 32.49235 -10.41995 40950 ft 507 kts 154°
2026-05-08 16:58 32.43446 -10.37029 40953 ft 507 kts 154°
2026-05-08 16:58 32.37760 -10.32157 40947 ft 507 kts 154°
2026-05-08 16:59 32.32074 -10.27293 40958 ft 506 kts 154°
2026-05-08 16:59 32.26488 -10.22523 40959 ft 507 kts 154°
2026-05-08 17:00 32.20728 -10.17612 40959 ft 507 kts 154°
2026-05-08 17:00 32.14996 -10.12731 40959 ft 507 kts 154°
2026-05-08 17:01 32.09281 -10.07874 40961 ft 507 kts 154°
2026-05-08 17:01 32.03517 -10.03201 40950 ft 505 kts 155°
2026-05-08 17:02 31.97668 -9.98738 40955 ft 490 kts 165°
2026-05-08 17:02 31.94530 -9.97371 40951 ft 477 kts 174°
2026-05-08 17:02 31.91336 -9.96627 40949 ft 465 kts 182°
2026-05-08 17:03 31.88163 -9.96510 40957 ft 453 kts 191°
2026-05-08 17:03 31.85080 -9.96944 40955 ft 450 kts 194°
2026-05-08 17:03 31.81931 -9.97022 40957 ft 461 kts 185°
2026-05-08 17:03 31.78739 -9.96500 40961 ft 470 kts 179°
2026-05-08 17:04 31.72310 -9.95309 40966 ft 468 kts 181°
2026-05-08 17:04 31.65893 -9.94219 40969 ft 469 kts 181°
2026-05-08 17:05 31.59479 -9.93135 40968 ft 468 kts 181°
2026-05-08 17:05 31.53037 -9.92050 40967 ft 469 kts 181°
2026-05-08 17:06 31.46612 -9.90969 40967 ft 469 kts 181°
2026-05-08 17:06 31.40185 -9.89888 40968 ft 470 kts 181°
2026-05-08 17:07 31.33753 -9.88808 40967 ft 469 kts 181°
2026-05-08 17:07 31.27287 -9.87724 40967 ft 470 kts 181°
2026-05-08 17:08 31.20834 -9.86645 40964 ft 472 kts 181°
2026-05-08 17:08 31.14372 -9.85562 40958 ft 472 kts 181°
2026-05-08 17:09 31.07879 -9.84480 40949 ft 473 kts 181°
2026-05-08 17:09 31.01396 -9.83399 40938 ft 473 kts 181°
2026-05-08 17:10 30.94912 -9.82320 40937 ft 473 kts 180°
2026-05-08 17:10 30.88427 -9.81241 40943 ft 474 kts 180°
2026-05-08 17:11 30.81892 -9.80157 40946 ft 476 kts 180°
2026-05-08 17:11 30.75372 -9.79075 40945 ft 475 kts 180°
2026-05-08 17:12 30.68865 -9.77999 40945 ft 476 kts 180°
2026-05-08 17:12 30.62309 -9.76914 40943 ft 478 kts 180°
2026-05-08 17:13 30.55776 -9.75844 40943 ft 476 kts 181°
2026-05-08 17:13 30.49238 -9.74837 40943 ft 477 kts 181°
2026-05-08 17:14 30.42684 -9.73831 40942 ft 478 kts 181°
2026-05-08 17:14 30.36099 -9.72823 40943 ft 478 kts 181°
2026-05-08 17:15 30.29547 -9.71820 40943 ft 477 kts 181°
2026-05-08 17:15 30.22999 -9.70820 40940 ft 477 kts 181°
2026-05-08 17:16 30.16419 -9.69815 40942 ft 478 kts 181°
2026-05-08 17:16 30.09851 -9.68815 40943 ft 479 kts 181°
2026-05-08 17:17 30.03274 -9.67815 40941 ft 479 kts 181°
2026-05-08 17:17 29.96694 -9.66814 40940 ft 479 kts 181°
2026-05-08 17:18 29.90100 -9.65814 40939 ft 479 kts 181°
2026-05-08 17:18 29.83523 -9.64817 40946 ft 479 kts 181°
2026-05-08 17:19 29.76949 -9.63822 40946 ft 479 kts 181°
2026-05-08 17:19 29.70344 -9.62824 40946 ft 479 kts 181°
2026-05-08 17:20 29.63772 -9.61832 40945 ft 479 kts 181°
2026-05-08 17:20 29.57202 -9.60841 40945 ft 479 kts 181°
2026-05-08 17:21 29.50628 -9.59852 40944 ft 479 kts 181°
2026-05-08 17:21 29.44029 -9.58860 40945 ft 479 kts 181°
2026-05-08 17:22 29.37451 -9.57872 40945 ft 479 kts 181°
2026-05-08 17:22 29.30873 -9.56885 40946 ft 479 kts 181°
2026-05-08 17:23 29.24267 -9.55896 40946 ft 479 kts 181°
2026-05-08 17:23 29.17699 -9.54913 40944 ft 479 kts 181°
2026-05-08 17:24 29.11123 -9.53931 40942 ft 479 kts 181°
2026-05-08 17:24 29.04549 -9.52950 40944 ft 479 kts 181°
2026-05-08 17:25 28.97949 -9.51966 40943 ft 480 kts 181°
2026-05-08 17:25 28.91360 -9.50987 40945 ft 481 kts 181°
2026-05-08 17:26 28.84752 -9.50005 40950 ft 481 kts 181°
2026-05-08 17:26 28.78136 -9.49023 40950 ft 480 kts 181°
2026-05-08 17:27 28.71545 -9.48046 40950 ft 480 kts 181°
2026-05-08 17:27 28.64951 -9.47070 40950 ft 480 kts 181°
2026-05-08 17:28 28.58363 -9.46096 40949 ft 480 kts 181°
2026-05-08 17:28 28.51748 -9.45119 40949 ft 480 kts 181°
2026-05-08 17:29 28.45150 -9.44146 40948 ft 480 kts 181°
2026-05-08 17:29 28.38550 -9.43173 40948 ft 480 kts 181°
2026-05-08 17:30 28.31932 -9.42199 40947 ft 481 kts 181°
2026-05-08 17:30 28.25319 -9.41228 40940 ft 482 kts 181°
2026-05-08 17:31 28.18705 -9.40257 40927 ft 482 kts 181°
2026-05-08 17:31 28.12097 -9.39289 40920 ft 481 kts 181°
2026-05-08 17:32 28.05472 -9.38319 40920 ft 482 kts 181°
2026-05-08 17:32 27.98859 -9.37352 40919 ft 482 kts 181°
2026-05-08 17:33 27.92255 -9.36388 40919 ft 482 kts 181°
2026-05-08 17:33 27.85617 -9.35420 40926 ft 482 kts 181°
2026-05-08 17:34 27.79005 -9.34457 40910 ft 481 kts 181°
2026-05-08 17:34 27.72411 -9.33498 40909 ft 481 kts 181°
2026-05-08 17:35 27.65810 -9.32539 40907 ft 482 kts 181°
2026-05-08 17:35 27.59180 -9.31577 40908 ft 481 kts 181°
2026-05-08 17:36 27.52568 -9.30618 40907 ft 481 kts 181°
2026-05-08 17:36 27.45964 -9.29662 40907 ft 481 kts 181°
2026-05-08 17:37 27.39323 -9.28702 40905 ft 483 kts 181°
2026-05-08 17:37 27.32693 -9.27745 40907 ft 483 kts 181°
2026-05-08 17:38 27.26069 -9.26789 40906 ft 483 kts 181°
2026-05-08 17:38 27.19442 -9.25834 40906 ft 483 kts 181°
2026-05-08 17:39 27.12787 -9.24877 40905 ft 483 kts 181°
2026-05-08 17:39 27.06153 -9.23923 40905 ft 483 kts 181°
2026-05-08 17:40 26.99524 -9.22971 40905 ft 483 kts 181°
2026-05-08 17:40 26.92870 -9.22017 40904 ft 483 kts 181°
2026-05-08 17:41 26.86232 -9.21067 40911 ft 484 kts 181°
2026-05-08 17:41 26.79590 -9.20117 40911 ft 484 kts 181°
2026-05-08 17:42 26.72952 -9.19168 40910 ft 484 kts 181°
2026-05-08 17:42 26.66284 -9.18217 40910 ft 484 kts 181°
2026-05-08 17:43 26.59645 -9.17270 40910 ft 484 kts 181°
2026-05-08 17:43 26.52995 -9.16323 40910 ft 484 kts 181°
2026-05-08 17:44 26.46327 -9.15375 40909 ft 484 kts 181°
2026-05-08 17:44 26.39683 -9.14431 40909 ft 484 kts 181°
2026-05-08 17:45 26.33033 -9.13489 40907 ft 485 kts 181°
2026-05-08 17:45 26.26358 -9.12542 40909 ft 486 kts 181°
2026-05-08 17:46 26.19664 -9.11594 40908 ft 486 kts 181°
2026-05-08 17:46 26.13000 -9.10652 40907 ft 485 kts 181°
2026-05-08 17:47 26.06341 -9.09712 40906 ft 486 kts 181°
2026-05-08 17:47 26.00774 -9.08926 40904 ft 486 kts 181°
2026-05-08 17:48 25.92966 -9.07827 40904 ft 488 kts 180°
2026-05-08 17:48 25.86259 -9.06882 40908 ft 488 kts 180°
2026-05-08 17:49 25.79561 -9.05941 40910 ft 488 kts 181°
2026-05-08 17:49 25.72845 -9.04998 40913 ft 488 kts 180°
2026-05-08 17:50 25.66149 -9.04059 40913 ft 488 kts 181°
2026-05-08 17:50 25.59454 -9.03121 40912 ft 488 kts 180°
2026-05-08 17:51 25.52737 -9.02181 40912 ft 488 kts 181°
2026-05-08 17:51 25.46042 -9.01245 40910 ft 488 kts 181°
2026-05-08 17:52 25.39333 -9.00309 40912 ft 490 kts 180°
2026-05-08 17:53 25.29228 -8.98899 40911 ft 489 kts 180°
2026-05-08 17:53 25.22512 -8.97964 40911 ft 489 kts 180°
2026-05-08 17:54 25.15795 -8.97029 40909 ft 490 kts 180°
2026-05-08 17:54 25.09067 -8.96095 40911 ft 491 kts 180°
2026-05-08 17:55 25.02310 -8.95158 40910 ft 491 kts 180°
2026-05-08 17:55 24.95579 -8.94224 40910 ft 491 kts 180°
2026-05-08 17:56 24.88832 -8.93290 40916 ft 491 kts 180°
2026-05-08 17:56 24.82052 -8.92352 40915 ft 492 kts 180°
2026-05-08 17:57 24.75295 -8.91419 40914 ft 492 kts 180°
2026-05-08 17:57 24.68543 -8.90487 40914 ft 492 kts 180°
2026-05-08 17:58 24.61791 -8.89556 40915 ft 492 kts 180°
2026-05-08 17:58 24.55011 -8.88622 40914 ft 492 kts 180°
2026-05-08 17:59 24.48260 -8.87694 40914 ft 492 kts 180°
2026-05-08 17:59 24.41502 -8.86765 40914 ft 493 kts 180°
2026-05-08 18:00 24.34699 -8.85831 40914 ft 494 kts 180°
2026-05-08 18:00 24.24567 -8.84938 40912 ft 481 kts 191°
2026-05-08 18:01 24.18033 -8.85914 40914 ft 476 kts 195°
2026-05-08 18:01 24.11492 -8.87004 40913 ft 476 kts 195°
2026-05-08 18:02 24.04982 -8.88091 40912 ft 476 kts 195°
2026-05-08 18:02 23.98459 -8.89177 40910 ft 477 kts 195°
2026-05-08 18:03 23.91937 -8.90263 40911 ft 477 kts 195°
2026-05-08 18:03 23.85397 -8.91351 40915 ft 476 kts 195°
2026-05-08 18:04 23.78878 -8.92434 40915 ft 477 kts 195°
2026-05-08 18:04 23.72362 -8.93516 40914 ft 477 kts 195°
2026-05-08 18:05 23.65823 -8.94600 40914 ft 476 kts 195°
2026-05-08 18:05 23.59308 -8.95679 40913 ft 476 kts 195°
2026-05-08 18:06 23.52789 -8.96758 40913 ft 476 kts 195°
2026-05-08 18:06 23.46268 -8.97836 40912 ft 476 kts 195°
2026-05-08 18:07 23.39733 -8.98915 40911 ft 475 kts 195°
2026-05-08 18:07 23.33231 -8.99988 40911 ft 475 kts 195°
2026-05-08 18:08 23.26724 -9.01061 40911 ft 475 kts 195°
2026-05-08 18:08 23.20196 -9.02135 40911 ft 475 kts 195°
2026-05-08 18:09 23.13692 -9.03205 40910 ft 475 kts 195°
2026-05-08 18:09 23.07185 -9.04275 40910 ft 475 kts 195°
2026-05-08 18:10 23.00689 -9.05342 40908 ft 475 kts 195°
2026-05-08 18:10 22.94176 -9.06409 40908 ft 474 kts 195°
2026-05-08 18:11 22.87688 -9.07473 40913 ft 475 kts 195°
2026-05-08 18:11 22.81187 -9.08537 40913 ft 475 kts 195°
2026-05-08 18:12 22.74665 -9.09603 40912 ft 475 kts 195°
2026-05-08 18:12 22.68166 -9.10665 40912 ft 475 kts 195°
2026-05-08 18:13 22.61673 -9.11725 40911 ft 475 kts 195°
2026-05-08 18:13 22.55178 -9.12785 40910 ft 474 kts 195°
2026-05-08 18:14 22.48672 -9.13844 40910 ft 474 kts 195°
2026-05-08 18:14 22.42179 -9.14901 40910 ft 475 kts 195°
2026-05-08 18:15 22.35688 -9.15956 40909 ft 474 kts 195°
2026-05-08 18:15 22.29173 -9.17016 40909 ft 475 kts 195°
2026-05-08 18:16 22.22662 -9.18071 40909 ft 476 kts 195°
2026-05-08 18:16 22.16149 -9.19128 40908 ft 476 kts 195°
2026-05-08 18:17 22.09634 -9.20183 40907 ft 476 kts 195°
2026-05-08 18:17 22.03101 -9.21241 40907 ft 476 kts 195°
2026-05-08 18:18 21.96587 -9.22294 40904 ft 475 kts 195°
2026-05-08 18:18 21.90106 -9.23340 40905 ft 473 kts 195°
2026-05-08 18:19 21.83604 -9.24390 40911 ft 474 kts 195°
2026-05-08 18:19 21.77116 -9.25435 40910 ft 474 kts 195°
2026-05-08 18:20 21.70643 -9.26479 40909 ft 473 kts 195°
2026-05-08 18:20 21.64174 -9.27520 40909 ft 473 kts 195°
2026-05-08 18:21 21.60914 -9.28044 41019 ft 470 kts 195°
2026-05-08 18:21 21.57713 -9.28558 41535 ft 468 kts 195°
2026-05-08 18:21 21.54517 -9.29072 42028 ft 467 kts 195°
2026-05-08 18:21 21.51324 -9.29585 42512 ft 465 kts 195°
2026-05-08 18:22 21.48188 -9.30086 42976 ft 454 kts 195°
2026-05-08 18:22 21.45105 -9.30584 43446 ft 449 kts 195°
2026-05-08 18:22 21.42035 -9.31077 43926 ft 446 kts 195°
2026-05-08 18:22 21.38957 -9.31570 44229 ft 447 kts 195°
2026-05-08 18:23 21.35903 -9.32060 44540 ft 446 kts 195°
2026-05-08 18:23 21.32851 -9.32550 44849 ft 446 kts 195°
2026-05-08 18:23 21.29805 -9.33037 45157 ft 445 kts 194°
2026-05-08 18:23 21.26770 -9.33523 45463 ft 444 kts 194°
2026-05-08 18:24 21.23739 -9.34007 45766 ft 442 kts 194°
2026-05-08 18:24 21.20721 -9.34489 46071 ft 440 kts 194°
2026-05-08 18:24 21.17697 -9.34974 46289 ft 440 kts 194°
2026-05-08 18:24 21.14681 -9.35456 46422 ft 441 kts 194°
2026-05-08 18:25 21.11657 -9.35939 46562 ft 443 kts 194°
2026-05-08 18:25 21.08624 -9.36424 46702 ft 444 kts 194°
2026-05-08 18:25 21.05584 -9.36909 46841 ft 445 kts 194°
2026-05-08 18:25 21.02536 -9.37395 46978 ft 446 kts 194°
2026-05-08 18:26 20.99480 -9.37882 47117 ft 447 kts 194°
2026-05-08 18:26 20.96398 -9.38373 47256 ft 448 kts 194°
2026-05-08 18:26 20.93330 -9.38862 47393 ft 448 kts 194°
2026-05-08 18:26 20.90264 -9.39351 47528 ft 449 kts 194°
2026-05-08 18:27 20.87187 -9.39840 47672 ft 450 kts 194°
2026-05-08 18:27 20.85142 -9.40165 47767 ft 450 kts 194°
2026-05-08 18:27 20.81028 -9.40820 47958 ft 450 kts 194°
2026-05-08 18:27 20.77948 -9.41310 48099 ft 450 kts 194°
2026-05-08 18:28 20.74845 -9.41804 48244 ft 450 kts 194°
2026-05-08 18:28 20.71764 -9.42293 48384 ft 450 kts 194°
2026-05-08 18:28 20.68689 -9.42780 48526 ft 450 kts 194°
2026-05-08 18:28 20.65609 -9.43270 48664 ft 450 kts 193°
2026-05-08 18:29 20.62536 -9.43757 48804 ft 449 kts 193°
2026-05-08 18:29 20.59464 -9.44246 48943 ft 448 kts 193°
2026-05-08 18:29 20.56401 -9.44731 49081 ft 448 kts 193°
2026-05-08 18:29 20.53320 -9.45219 49217 ft 447 kts 193°
2026-05-08 18:30 20.50269 -9.45703 49352 ft 445 kts 193°
2026-05-08 18:30 20.47230 -9.46184 49487 ft 444 kts 193°
2026-05-08 18:30 20.44199 -9.46665 49622 ft 442 kts 193°
2026-05-08 18:30 20.41179 -9.47141 49756 ft 440 kts 193°
2026-05-08 18:31 20.38170 -9.47618 49888 ft 438 kts 193°
2026-05-08 18:31 20.35177 -9.48091 50018 ft 436 kts 193°
2026-05-08 18:31 20.32184 -9.48564 50149 ft 434 kts 193°
2026-05-08 18:31 20.29227 -9.49031 50278 ft 431 kts 193°
2026-05-08 18:32 20.26296 -9.49495 50407 ft 427 kts 193°
2026-05-08 18:32 20.23384 -9.49954 50534 ft 424 kts 192°
2026-05-08 18:32 20.20493 -9.50411 50661 ft 420 kts 192°
2026-05-08 18:32 20.17623 -9.50863 50786 ft 416 kts 192°
2026-05-08 18:33 20.11937 -9.51759 50874 ft 411 kts 192°
2026-05-08 18:33 20.06365 -9.52636 50837 ft 405 kts 192°
2026-05-08 18:34 20.00843 -9.53506 50232 ft 415 kts 192°
2026-05-08 18:34 19.95228 -9.54388 50036 ft 411 kts 192°
2026-05-08 18:35 19.89604 -9.55274 49949 ft 412 kts 193°
2026-05-08 18:35 19.86761 -9.55720 49760 ft 417 kts 193°
2026-05-08 18:35 19.83899 -9.56169 49778 ft 416 kts 193°
2026-05-08 18:36 19.81069 -9.56615 49884 ft 414 kts 193°
2026-05-08 18:36 19.78240 -9.57059 49912 ft 413 kts 193°
2026-05-08 18:36 19.72560 -9.57950 49899 ft 413 kts 193°
2026-05-08 18:37 19.66906 -9.58836 49889 ft 413 kts 193°
2026-05-08 18:37 19.61250 -9.59722 49888 ft 413 kts 193°
2026-05-08 18:38 19.55602 -9.60606 49887 ft 413 kts 193°
2026-05-08 18:38 19.49926 -9.61494 49887 ft 413 kts 193°
2026-05-08 18:39 19.44285 -9.62376 49887 ft 412 kts 193°
2026-05-08 18:39 19.38642 -9.63257 49886 ft 412 kts 193°
2026-05-08 18:40 19.32989 -9.64139 49884 ft 411 kts 193°
2026-05-08 18:40 19.27363 -9.65017 49885 ft 411 kts 193°
2026-05-08 18:41 19.21747 -9.65893 49893 ft 411 kts 193°
2026-05-08 18:41 19.16121 -9.66769 49894 ft 411 kts 193°
2026-05-08 18:42 19.10418 -9.67657 49336 ft 427 kts 193°
2026-05-08 18:42 19.07451 -9.68117 48934 ft 438 kts 193°
2026-05-08 18:42 19.04444 -9.68586 48887 ft 441 kts 193°
2026-05-08 18:43 18.98368 -9.69531 48864 ft 447 kts 193°
2026-05-08 18:43 18.92188 -9.70492 48864 ft 453 kts 193°
2026-05-08 18:44 18.85948 -9.71460 48867 ft 458 kts 193°
2026-05-08 18:44 18.79676 -9.72432 48862 ft 458 kts 193°
2026-05-08 18:45 18.73407 -9.73404 48864 ft 460 kts 193°
2026-05-08 18:45 18.67063 -9.74386 48862 ft 462 kts 193°
2026-05-08 18:46 18.60744 -9.75364 48861 ft 461 kts 194°
2026-05-08 18:46 18.54434 -9.76340 48861 ft 460 kts 194°
2026-05-08 18:47 18.48111 -9.77317 48861 ft 460 kts 194°
2026-05-08 18:47 18.41808 -9.78290 48859 ft 461 kts 194°
2026-05-08 18:48 18.35490 -9.79265 48861 ft 462 kts 194°
2026-05-08 18:48 18.29175 -9.80238 48859 ft 460 kts 194°
2026-05-08 18:49 18.22859 -9.81211 48859 ft 459 kts 194°
2026-05-08 18:49 18.16573 -9.82179 48860 ft 460 kts 194°
2026-05-08 18:50 18.10275 -9.83148 48859 ft 460 kts 194°
2026-05-08 18:50 18.03952 -9.84120 48854 ft 460 kts 194°
2026-05-08 18:51 17.97651 -9.85088 48843 ft 460 kts 194°
2026-05-08 18:51 17.91356 -9.86054 48832 ft 460 kts 194°
2026-05-08 18:52 17.85065 -9.87019 48834 ft 460 kts 194°
2026-05-08 18:52 17.78748 -9.87989 48833 ft 460 kts 194°
2026-05-08 18:53 17.72444 -9.88953 48834 ft 461 kts 193°
2026-05-08 18:53 17.66142 -9.89918 48833 ft 461 kts 194°
2026-05-08 18:54 17.59823 -9.90885 48833 ft 461 kts 193°
2026-05-08 18:54 17.53510 -9.91849 48833 ft 461 kts 193°
2026-05-08 18:55 17.44033 -9.93296 48832 ft 462 kts 193°
2026-05-08 18:56 17.37686 -9.94265 48824 ft 462 kts 193°
2026-05-08 18:56 17.31341 -9.95233 48813 ft 463 kts 193°
2026-05-08 18:57 17.25013 -9.96197 48803 ft 462 kts 193°
2026-05-08 18:57 17.18681 -9.97161 48803 ft 462 kts 193°
2026-05-08 18:58 17.12317 -9.98130 48803 ft 463 kts 193°
2026-05-08 18:58 17.05960 -9.99029 48791 ft 467 kts 188°
2026-05-08 18:59 16.99471 -9.98956 48793 ft 473 kts 179°
2026-05-08 18:59 16.93052 -9.97259 48806 ft 485 kts 161°
2026-05-08 19:00 16.87297 -9.93516 48809 ft 498 kts 143°
2026-05-08 19:00 16.82092 -9.88828 48818 ft 492 kts 152°
2026-05-08 19:01 16.76208 -9.85322 48808 ft 490 kts 154°
2026-05-08 19:01 16.70341 -9.81729 48806 ft 490 kts 154°
2026-05-08 19:02 16.64491 -9.78134 48806 ft 489 kts 154°
2026-05-08 19:02 16.58662 -9.74554 48807 ft 489 kts 154°
2026-05-08 19:03 16.52809 -9.70961 48807 ft 489 kts 154°
2026-05-08 19:03 16.46981 -9.67386 48806 ft 489 kts 154°
2026-05-08 19:04 16.41159 -9.63818 48806 ft 488 kts 154°
2026-05-08 19:04 16.35337 -9.60251 48807 ft 488 kts 153°
2026-05-08 19:05 16.29485 -9.56669 48807 ft 489 kts 153°
2026-05-08 19:05 16.23657 -9.53105 48807 ft 489 kts 154°
2026-05-08 19:06 16.17828 -9.49542 48807 ft 488 kts 154°
2026-05-08 19:06 16.11977 -9.45968 48807 ft 488 kts 154°
2026-05-08 19:07 16.06057 -9.42583 48811 ft 487 kts 157°
2026-05-08 19:07 16.00066 -9.39391 48807 ft 487 kts 157°
2026-05-08 19:08 15.94075 -9.36201 48806 ft 485 kts 156°
2026-05-08 19:08 15.88075 -9.33007 48803 ft 484 kts 157°
2026-05-08 19:09 15.82102 -9.29831 48804 ft 485 kts 157°
2026-05-08 19:09 15.76127 -9.26656 48803 ft 486 kts 157°
2026-05-08 19:10 15.70128 -9.23469 48803 ft 485 kts 157°
2026-05-08 19:10 15.64151 -9.20297 48803 ft 485 kts 157°
2026-05-08 19:11 15.58180 -9.17130 48803 ft 485 kts 157°
2026-05-08 19:11 15.52214 -9.13968 48803 ft 484 kts 157°
2026-05-08 19:12 15.46213 -9.10789 48803 ft 485 kts 156°
2026-05-08 19:12 15.40225 -9.07619 48804 ft 485 kts 156°
2026-05-08 19:13 15.34259 -9.04463 48803 ft 484 kts 156°
2026-05-08 19:13 15.28270 -9.01297 48803 ft 484 kts 156°
2026-05-08 19:14 15.22306 -8.98146 48803 ft 484 kts 156°
2026-05-08 19:14 15.16343 -8.94997 48803 ft 484 kts 156°
2026-05-08 19:15 15.10383 -8.91852 48803 ft 483 kts 156°
2026-05-08 19:15 15.04404 -8.88701 48803 ft 483 kts 156°
2026-05-08 19:16 14.98452 -8.85563 48803 ft 483 kts 156°
2026-05-08 19:16 14.92502 -8.82429 48803 ft 482 kts 156°
2026-05-08 19:17 14.86527 -8.79285 48806 ft 482 kts 156°
2026-05-08 19:17 14.80583 -8.76158 48806 ft 482 kts 156°
2026-05-08 19:18 14.74640 -8.73034 48806 ft 481 kts 156°
2026-05-08 19:18 14.68706 -8.69917 48806 ft 481 kts 156°
2026-05-08 19:19 14.62759 -8.66795 48806 ft 480 kts 156°
2026-05-08 19:19 14.56836 -8.63686 48806 ft 480 kts 156°
2026-05-08 19:20 14.50918 -8.60583 48806 ft 479 kts 156°
2026-05-08 19:20 14.44986 -8.57475 48805 ft 479 kts 156°
2026-05-08 19:21 14.39082 -8.54382 48806 ft 479 kts 156°
2026-05-08 19:21 14.33184 -8.51295 48815 ft 478 kts 156°
2026-05-08 19:22 14.27282 -8.48207 48825 ft 478 kts 156°
2026-05-08 19:22 14.21375 -8.45118 48833 ft 477 kts 156°
2026-05-08 19:23 14.15487 -8.42043 48831 ft 477 kts 156°
2026-05-08 19:23 14.09599 -8.38967 48832 ft 477 kts 156°
2026-05-08 19:24 14.03691 -8.35884 48831 ft 477 kts 156°
2026-05-08 19:24 13.97807 -8.32815 48829 ft 476 kts 156°
2026-05-08 19:25 13.91942 -8.29757 48826 ft 475 kts 156°
2026-05-08 19:25 13.86055 -8.26690 48832 ft 476 kts 156°
2026-05-08 19:26 13.80154 -8.23617 48832 ft 476 kts 156°
2026-05-08 19:26 13.74277 -8.20559 48831 ft 476 kts 156°
2026-05-08 19:27 13.68403 -8.17503 48831 ft 476 kts 156°
2026-05-08 19:27 13.62506 -8.14438 48832 ft 476 kts 156°
2026-05-08 19:28 13.56631 -8.11386 48835 ft 475 kts 156°
2026-05-08 19:28 13.50763 -8.08339 48838 ft 475 kts 156°
2026-05-08 19:29 13.44888 -8.05291 48841 ft 475 kts 156°
2026-05-08 19:29 13.38991 -8.02232 48845 ft 476 kts 156°
2026-05-08 19:30 13.33110 -7.99184 48846 ft 476 kts 156°
2026-05-08 19:30 13.27218 -7.96130 48853 ft 477 kts 156°
2026-05-08 19:31 13.21295 -7.93063 48855 ft 477 kts 156°
2026-05-08 19:31 13.15399 -7.90012 48857 ft 477 kts 156°
2026-05-08 19:32 13.09508 -7.86965 48857 ft 477 kts 156°
2026-05-08 19:32 13.03627 -7.83924 48857 ft 477 kts 156°
2026-05-08 19:33 12.98416 -7.81232 48857 ft 477 kts 156°
2026-05-08 19:33 12.92532 -7.78193 48856 ft 477 kts 156°
2026-05-08 19:34 12.86638 -7.75151 48861 ft 477 kts 156°
2026-05-08 19:34 12.80730 -7.72102 48860 ft 476 kts 156°
2026-05-08 19:35 12.74841 -7.69066 48860 ft 476 kts 156°
2026-05-08 19:35 12.68945 -7.66028 48860 ft 476 kts 156°
2026-05-08 19:36 12.63059 -7.62996 48860 ft 476 kts 156°
2026-05-08 19:36 12.57157 -7.59957 48860 ft 476 kts 156°
2026-05-08 19:37 12.51273 -7.56929 48860 ft 476 kts 156°
2026-05-08 19:37 12.45386 -7.53902 48860 ft 476 kts 156°
2026-05-08 19:38 12.39479 -7.50865 48859 ft 476 kts 156°
2026-05-08 19:38 12.33594 -7.47842 48860 ft 476 kts 156°
2026-05-08 19:39 12.27711 -7.44821 48859 ft 476 kts 156°
2026-05-08 19:39 12.21827 -7.41801 48859 ft 475 kts 156°
2026-05-08 19:40 12.15927 -7.38774 48859 ft 476 kts 156°
2026-05-08 19:40 12.10046 -7.35758 48859 ft 476 kts 155°
2026-05-08 19:41 12.04146 -7.32735 48855 ft 476 kts 156°
2026-05-08 19:41 11.98232 -7.29708 48855 ft 476 kts 155°
2026-05-08 19:42 11.92337 -7.26689 48856 ft 477 kts 155°
2026-05-08 19:42 11.86433 -7.23666 48858 ft 477 kts 155°
2026-05-08 19:43 11.80526 -7.20645 48859 ft 478 kts 155°
2026-05-08 19:43 11.74598 -7.17615 48859 ft 478 kts 155°
2026-05-08 19:44 11.68684 -7.14592 48863 ft 478 kts 155°
2026-05-08 19:44 11.62770 -7.11573 48867 ft 479 kts 155°
2026-05-08 19:45 11.56829 -7.08539 48870 ft 479 kts 155°
2026-05-08 19:45 11.50894 -7.05511 48873 ft 479 kts 155°
2026-05-08 19:46 11.44956 -7.02482 48877 ft 480 kts 155°
2026-05-08 19:46 11.36013 -6.97924 48882 ft 480 kts 155°
2026-05-08 19:47 11.30073 -6.94898 48885 ft 480 kts 155°
2026-05-08 19:47 11.24124 -6.91869 48885 ft 481 kts 155°
2026-05-08 19:48 11.18169 -6.88839 48885 ft 481 kts 155°
2026-05-08 19:48 11.12194 -6.85799 48885 ft 481 kts 155°
2026-05-08 19:49 11.06240 -6.82772 48885 ft 481 kts 155°
2026-05-08 19:49 11.00283 -6.79744 48884 ft 482 kts 155°
2026-05-08 19:50 10.94299 -6.76705 48885 ft 482 kts 154°
2026-05-08 19:50 10.88321 -6.73668 48886 ft 482 kts 154°
2026-05-08 19:51 10.82351 -6.70639 48886 ft 483 kts 154°
2026-05-08 19:51 10.76370 -6.67604 48886 ft 483 kts 154°
2026-05-08 19:52 10.70356 -6.64555 48886 ft 484 kts 154°
2026-05-08 19:52 10.64356 -6.61513 48886 ft 484 kts 154°
2026-05-08 19:53 10.58355 -6.58474 48886 ft 485 kts 154°
2026-05-08 19:53 10.52332 -6.55423 48886 ft 485 kts 154°
2026-05-08 19:54 10.46320 -6.52381 48886 ft 486 kts 154°
2026-05-08 19:54 10.40296 -6.49332 48886 ft 487 kts 154°
2026-05-08 19:55 10.34265 -6.46282 48886 ft 487 kts 154°
2026-05-08 19:55 10.28205 -6.43218 48886 ft 488 kts 154°
2026-05-08 19:56 10.22158 -6.40162 48886 ft 489 kts 154°
2026-05-08 19:56 10.16101 -6.37103 48886 ft 489 kts 154°
2026-05-08 19:57 10.10001 -6.34023 48885 ft 489 kts 154°
2026-05-08 19:57 10.03941 -6.30965 48885 ft 490 kts 154°
2026-05-08 19:58 9.97854 -6.27896 48886 ft 490 kts 154°
2026-05-08 19:58 9.91770 -6.24827 48885 ft 491 kts 154°
2026-05-08 19:59 9.85665 -6.21749 48884 ft 490 kts 154°
2026-05-08 19:59 9.79588 -6.18688 48885 ft 490 kts 154°
2026-05-08 20:00 9.73517 -6.15630 48885 ft 490 kts 154°
2026-05-08 20:00 9.67429 -6.12565 48885 ft 490 kts 154°
2026-05-08 20:01 9.61347 -6.09506 48887 ft 490 kts 154°
2026-05-08 20:01 9.55281 -6.06454 48884 ft 489 kts 154°
2026-05-08 20:02 9.49204 -6.03398 48885 ft 489 kts 154°
2026-05-08 20:02 9.43121 -6.00341 48911 ft 489 kts 154°
2026-05-08 20:03 9.37051 -5.97293 48913 ft 491 kts 154°
2026-05-08 20:03 9.30950 -5.94227 48913 ft 492 kts 154°
2026-05-08 20:04 9.24830 -5.91156 48912 ft 491 kts 154°
2026-05-08 20:04 9.18755 -5.88108 48912 ft 490 kts 154°
2026-05-08 20:05 9.12669 -5.85055 48912 ft 490 kts 154°
2026-05-08 20:05 9.06596 -5.82011 48911 ft 490 kts 154°
2026-05-08 20:06 9.00490 -5.78950 48913 ft 491 kts 153°
2026-05-08 20:06 8.94410 -5.75904 48912 ft 490 kts 153°
2026-05-08 20:07 8.88318 -5.72853 48912 ft 490 kts 153°
2026-05-08 20:07 8.82215 -5.69797 48911 ft 490 kts 153°
2026-05-08 20:08 8.76139 -5.66756 48911 ft 490 kts 153°
2026-05-08 20:08 8.70058 -5.63713 48911 ft 490 kts 153°
2026-05-08 20:09 8.63982 -5.60674 48911 ft 490 kts 153°
2026-05-08 20:09 8.57882 -5.57625 48911 ft 490 kts 153°
2026-05-08 20:10 8.51796 -5.54583 48911 ft 490 kts 153°
2026-05-08 20:10 8.45717 -5.51547 48911 ft 490 kts 153°
2026-05-08 20:11 8.39613 -5.48498 48911 ft 490 kts 153°
2026-05-08 20:11 8.33536 -5.45464 48912 ft 490 kts 153°
2026-05-08 20:12 8.27453 -5.42429 48911 ft 490 kts 153°
2026-05-08 20:12 8.21374 -5.39396 48911 ft 490 kts 153°
2026-05-08 20:13 8.15275 -5.36354 48911 ft 490 kts 153°
2026-05-08 20:13 8.09196 -5.33323 48913 ft 490 kts 153°
2026-05-08 20:14 8.03121 -5.30296 48913 ft 490 kts 153°
2026-05-08 20:14 7.97014 -5.27257 48914 ft 490 kts 153°
2026-05-08 20:15 7.90943 -5.24230 48917 ft 489 kts 153°
2026-05-08 20:15 7.84861 -5.21202 48917 ft 489 kts 153°
2026-05-08 20:16 7.78793 -5.18182 48915 ft 489 kts 153°
2026-05-08 20:16 7.72699 -5.15150 48913 ft 489 kts 153°
2026-05-08 20:17 7.66638 -5.12136 48910 ft 489 kts 152°
2026-05-08 20:17 7.60568 -5.09117 48909 ft 489 kts 152°
2026-05-08 20:18 7.54480 -5.06091 48908 ft 488 kts 152°
2026-05-08 20:18 7.48416 -5.03078 48906 ft 488 kts 152°
2026-05-08 20:19 7.42339 -5.00059 48905 ft 488 kts 152°
2026-05-08 20:19 7.36274 -4.97047 48904 ft 488 kts 152°
2026-05-08 20:20 7.33212 -4.95527 48574 ft 494 kts 152°
2026-05-08 20:20 7.30153 -4.94008 48147 ft 490 kts 152°
2026-05-08 20:20 7.27146 -4.92515 47707 ft 480 kts 152°
2026-05-08 20:20 7.24203 -4.91055 47265 ft 469 kts 152°
2026-05-08 20:21 7.21334 -4.89631 46825 ft 458 kts 152°
2026-05-08 20:21 7.18525 -4.88237 46387 ft 449 kts 152°
2026-05-08 20:21 7.15758 -4.86865 45948 ft 445 kts 152°
2026-05-08 20:21 7.12958 -4.85475 45312 ft 449 kts 152°
2026-05-08 20:22 7.10165 -4.84090 44702 ft 449 kts 152°
2026-05-08 20:22 7.07390 -4.82715 44080 ft 444 kts 153°
2026-05-08 20:22 7.04655 -4.81359 43447 ft 437 kts 153°
2026-05-08 20:22 7.01969 -4.80027 42718 ft 432 kts 153°
2026-05-08 20:23 6.99310 -4.78709 41883 ft 428 kts 153°
2026-05-08 20:23 6.96673 -4.77402 41055 ft 424 kts 153°
2026-05-08 20:23 6.94036 -4.76096 40219 ft 420 kts 153°
2026-05-08 20:23 6.91454 -4.74817 39391 ft 415 kts 153°
2026-05-08 20:24 6.88894 -4.73549 38564 ft 411 kts 153°
2026-05-08 20:24 6.86366 -4.72298 37739 ft 406 kts 153°
2026-05-08 20:24 6.83862 -4.71058 36913 ft 402 kts 153°
2026-05-08 20:24 6.81389 -4.69833 36088 ft 398 kts 153°
2026-05-08 20:25 6.78939 -4.68620 35260 ft 394 kts 153°
2026-05-08 20:25 6.76493 -4.67410 34426 ft 391 kts 153°
2026-05-08 20:25 6.74069 -4.66210 33592 ft 387 kts 153°
2026-05-08 20:25 6.71680 -4.65032 32766 ft 384 kts 152°
2026-05-08 20:26 6.69323 -4.63854 31934 ft 380 kts 149°
2026-05-08 20:26 6.67173 -4.62384 31105 ft 374 kts 142°
2026-05-08 20:26 6.65113 -4.60834 30279 ft 371 kts 142°
2026-05-08 20:26 6.63059 -4.59293 29448 ft 368 kts 141°
2026-05-08 20:27 6.61022 -4.57765 28616 ft 364 kts 141°
2026-05-08 20:27 6.59013 -4.56249 27786 ft 361 kts 142°
2026-05-08 20:27 6.57150 -4.54612 26957 ft 356 kts 136°
2026-05-08 20:27 6.55365 -4.52936 26129 ft 352 kts 135°
2026-05-08 20:28 6.53604 -4.51275 25305 ft 349 kts 136°
2026-05-08 20:28 6.51861 -4.49631 24479 ft 345 kts 135°
2026-05-08 20:28 6.50135 -4.47997 23652 ft 341 kts 135°
2026-05-08 20:28 6.48412 -4.46370 22815 ft 338 kts 135°
2026-05-08 20:29 6.46717 -4.44783 22143 ft 329 kts 135°
2026-05-08 20:29 6.45074 -4.43252 21626 ft 318 kts 135°
2026-05-08 20:29 6.43481 -4.41782 21110 ft 308 kts 135°
2026-05-08 20:29 6.41931 -4.40358 20594 ft 300 kts 135°
2026-05-08 20:30 6.40416 -4.38971 20079 ft 293 kts 135°
2026-05-08 20:30 6.38930 -4.37618 19567 ft 287 kts 135°
2026-05-08 20:30 6.37446 -4.36278 19055 ft 285 kts 135°
2026-05-08 20:30 6.35980 -4.34957 18553 ft 285 kts 136°
2026-05-08 20:31 6.34483 -4.33653 18057 ft 287 kts 140°
2026-05-08 20:31 6.32889 -4.32464 17571 ft 286 kts 141°
2026-05-08 20:31 6.31298 -4.31290 17076 ft 284 kts 141°
2026-05-08 20:31 6.29721 -4.30135 16579 ft 281 kts 141°
2026-05-08 20:32 6.28156 -4.28999 16081 ft 277 kts 140°
2026-05-08 20:32 6.26598 -4.27878 15577 ft 273 kts 141°
2026-05-08 20:32 6.25075 -4.26795 15061 ft 265 kts 141°
2026-05-08 20:32 6.23587 -4.25750 14557 ft 261 kts 140°
2026-05-08 20:33 6.22104 -4.24724 14064 ft 261 kts 141°
2026-05-08 20:33 6.20604 -4.23693 13570 ft 261 kts 140°
2026-05-08 20:33 6.19110 -4.22675 13075 ft 260 kts 141°
2026-05-08 20:33 6.17626 -4.21675 12578 ft 257 kts 141°
2026-05-08 20:34 6.16146 -4.20688 12077 ft 253 kts 140°
2026-05-08 20:34 6.14690 -4.19724 11575 ft 252 kts 141°
2026-05-08 20:34 6.11796 -4.17748 10582 ft 254 kts 141°
2026-05-08 20:35 6.10376 -4.16748 10072 ft 248 kts 141°
2026-05-08 20:35 6.08983 -4.15759 9566 ft 247 kts 143°
2026-05-08 20:35 6.07569 -4.14792 9066 ft 248 kts 143°
2026-05-08 20:35 6.06144 -4.13794 8569 ft 250 kts 142°
2026-05-08 20:36 6.04738 -4.12800 8073 ft 248 kts 142°
2026-05-08 20:36 6.03353 -4.11814 7576 ft 244 kts 143°
2026-05-08 20:36 6.02009 -4.10851 7159 ft 237 kts 143°
2026-05-08 20:36 6.00682 -4.09893 6665 ft 236 kts 143°
2026-05-08 20:37 5.99367 -4.08934 6178 ft 234 kts 142°
2026-05-08 20:37 5.98076 -4.07982 5747 ft 226 kts 142°
2026-05-08 20:37 5.96825 -4.07048 5516 ft 221 kts 143°
2026-05-08 20:37 5.95539 -4.06229 5264 ft 217 kts 147°
2026-05-08 20:38 5.94283 -4.05434 5075 ft 211 kts 147°
2026-05-08 20:38 5.93082 -4.04670 4981 ft 206 kts 148°
2026-05-08 20:38 5.91859 -4.03881 4801 ft 212 kts 147°
2026-05-08 20:38 5.90620 -4.03077 4598 ft 213 kts 147°
2026-05-08 20:39 5.89390 -4.02270 4408 ft 211 kts 148°
2026-05-08 20:39 5.88165 -4.01455 4207 ft 209 kts 147°
2026-05-08 20:39 5.86974 -4.00655 4095 ft 204 kts 148°
2026-05-08 20:39 5.85842 -3.99894 3939 ft 188 kts 148°
2026-05-08 20:40 5.84844 -3.99213 3827 ft 164 kts 148°
2026-05-08 20:40 5.83918 -3.98574 3687 ft 163 kts 147°
2026-05-08 20:40 5.82968 -3.97914 3584 ft 169 kts 147°
2026-05-08 20:40 5.81995 -3.97235 3475 ft 171 kts 147°
2026-05-08 20:41 5.81017 -3.96547 3364 ft 171 kts 147°
2026-05-08 20:41 5.80057 -3.95866 3265 ft 169 kts 147°
2026-05-08 20:41 5.79065 -3.95252 3158 ft 167 kts 158°
2026-05-08 20:41 5.78032 -3.94724 3063 ft 167 kts 156°
2026-05-08 20:42 5.77041 -3.94210 2944 ft 156 kts 155°
2026-05-08 20:42 5.76083 -3.93713 2761 ft 155 kts 155°
2026-05-08 20:42 5.75127 -3.93219 2573 ft 156 kts 155°
2026-05-08 20:42 5.74157 -3.92721 2386 ft 156 kts 155°
2026-05-08 20:43 5.73196 -3.92231 2259 ft 153 kts 155°
2026-05-08 20:43 5.72249 -3.91747 2235 ft 154 kts 155°
2026-05-08 20:43 5.71291 -3.91259 2227 ft 155 kts 155°
2026-05-08 20:43 5.70325 -3.90767 2236 ft 156 kts 155°
2026-05-08 20:44 5.69361 -3.90274 2248 ft 156 kts 155°
2026-05-08 20:44 5.68395 -3.89782 2261 ft 156 kts 155°
2026-05-08 20:44 5.67419 -3.89285 2272 ft 157 kts 155°
2026-05-08 20:44 5.66443 -3.88792 2287 ft 157 kts 155°
2026-05-08 20:45 5.65468 -3.88299 2300 ft 157 kts 155°
2026-05-08 20:45 5.64495 -3.87806 2313 ft 157 kts 155°
2026-05-08 20:45 5.63500 -3.87360 2316 ft 157 kts 165°
2026-05-08 20:45 5.62462 -3.87039 2328 ft 156 kts 165°
2026-05-08 20:46 5.61448 -3.86726 2323 ft 145 kts 165°
2026-05-08 20:46 5.60522 -3.86436 2189 ft 135 kts 164°
2026-05-08 20:46 5.59635 -3.86158 2011 ft 134 kts 165°
2026-05-08 20:46 5.58770 -3.85888 1998 ft 131 kts 165°
2026-05-08 20:47 5.57888 -3.85614 2016 ft 134 kts 164°
2026-05-08 20:47 5.56997 -3.85335 2058 ft 135 kts 164°
2026-05-08 20:47 5.56101 -3.85054 2114 ft 135 kts 164°
2026-05-08 20:47 5.55184 -3.84892 2159 ft 134 kts 172°
2026-05-08 20:48 5.54248 -3.84752 2139 ft 137 kts 173°
2026-05-08 20:48 5.53309 -3.84614 2034 ft 138 kts 173°
2026-05-08 20:48 5.52368 -3.84476 1888 ft 134 kts 173°
2026-05-08 20:48 5.51460 -3.84342 1863 ft 132 kts 173°
2026-05-08 20:49 5.50546 -3.84208 1854 ft 134 kts 173°
2026-05-08 20:49 5.49627 -3.84069 1853 ft 135 kts 177°
2026-05-08 20:49 5.48725 -3.84282 1837 ft 135 kts 195°
2026-05-08 20:49 5.47800 -3.84477 1797 ft 135 kts 189°
2026-05-08 20:50 5.46878 -3.84570 1810 ft 134 kts 187°
2026-05-08 20:50 5.45953 -3.84684 1801 ft 134 kts 190°
2026-05-08 20:50 5.45069 -3.84927 1899 ft 134 kts 201°
2026-05-08 20:50 5.44180 -3.85235 1910 ft 135 kts 197°
2026-05-08 20:51 5.43286 -3.85512 1964 ft 136 kts 196°
2026-05-08 20:51 5.42390 -3.85807 1986 ft 137 kts 198°
2026-05-08 20:51 5.41479 -3.86146 1968 ft 139 kts 201°
2026-05-08 20:51 5.40587 -3.86496 1910 ft 137 kts 199°
2026-05-08 20:52 5.39720 -3.86844 1932 ft 133 kts 201°
2026-05-08 20:52 5.38871 -3.87224 1961 ft 135 kts 203°
2026-05-08 20:52 5.38006 -3.87612 1931 ft 138 kts 203°
2026-05-08 20:52 5.37131 -3.88008 1824 ft 134 kts 202°
2026-05-08 20:53 5.36241 -3.88382 1650 ft 143 kts 202°
2026-05-08 20:53 5.35317 -3.88763 1464 ft 139 kts 202°
2026-05-08 20:53 5.34442 -3.89132 1400 ft 137 kts 202°
2026-05-08 20:53 5.33574 -3.89493 1438 ft 135 kts 203°
2026-05-08 20:54 5.32668 -3.89861 1277 ft 146 kts 201°
2026-05-08 20:54 5.31727 -3.90229 1002 ft 145 kts 202°
2026-05-08 20:54 5.30831 -3.90622 783 ft 139 kts 204°
2026-05-08 20:54 5.29971 -3.90980 621 ft 135 kts 202°
2026-05-08 20:55 5.29084 -3.91360 483 ft 141 kts 202°
2026-05-08 20:55 5.28204 -3.91726 327 ft 132 kts 202°
2026-05-08 20:55 5.27387 -3.92064 119 ft 123 kts 203°
2026-05-08 20:55 5.26645 -3.92368 29 ft 108 kts 202°
2026-05-08 20:56 5.26077 -3.92597 27 ft 58 kts 202°
2026-05-08 20:56 5.25845 -3.92695 27 ft 30 kts 204°
2026-05-08 20:56 5.25645 -3.92781 27 ft 36 kts 204°
2026-05-08 20:56 5.25478 -3.92871 27 ft 18 kts 239°
2026-05-08 20:57 5.25483 -3.92947 27 ft 4 kts 292°
2026-05-08 20:57 5.25484 -3.92948 27 ft 0 kts 292°
2026-05-08 20:57 5.25486 -3.92954 27 ft 5 kts 292°
2026-05-08 20:58 5.25507 -3.93018 27 ft 13 kts 271°
2026-05-08 20:58 5.25474 -3.93109 27 ft 15 kts 277°
2026-05-08 20:58 5.25481 -3.93159 27 ft 0 kts 278°
2026-05-08 20:58 5.25481 -3.93160 27 ft 0 kts 278°